Wetterdaten: Sonntag, 16.10.2016
Datum Zeit Temp. A. Feuchte A. Luftdruck Regen Wind Richtung Richtung Sonnenschein ET UV Solar Taupunkt Windchill Windben Empfang
16.10.2016 00:00 10,7 C 94 % 1017,9 hPa 0,0 l/m 2,3 km/h (1 Bft) SW 215 0 min 0,000 mm 0,0 UV-I 0 W/m 9,8 C 10,7 C 4,8 km/h (1 Bft) 93,75 %
16.10.2016 00:02 10,7 C 95 % 1017,9 hPa 0,0 l/m 6,2 km/h (2 Bft) S-SO 167 0 min 0,000 mm 0,0 UV-I 0 W/m 9,9 C 10,7 C 8,0 km/h (2 Bft) 97,44 %
16.10.2016 00:04 10,7 C 95 % 1017,9 hPa 0,0 l/m 6,2 km/h (2 Bft) S-SO 167 0 min 0,000 mm 0,0 UV-I 0 W/m 9,9 C 10,7 C 8,0 km/h (2 Bft) 95,74 %
16.10.2016 00:06 10,7 C 95 % 1017,9 hPa 0,0 l/m 5,9 km/h (2 Bft) S-SO 167 0 min 0,000 mm 0,0 UV-I 0 W/m 9,9 C 10,7 C 6,4 km/h (2 Bft) 98,00 %
16.10.2016 00:08 10,8 C 96 % 1017,9 hPa 0,0 l/m 3,3 km/h (1 Bft) S-SO 167 0 min 0,000 mm 0,0 UV-I 0 W/m 10,2 C 10,8 C 6,4 km/h (2 Bft) 97,56 %
16.10.2016 00:10 10,9 C 96 % 1017,9 hPa 0,0 l/m 0,8 km/h (0 Bft) S-SO 167 0 min 0,000 mm 0,0 UV-I 0 W/m 10,3 C 10,9 C 1,6 km/h (1 Bft) 98,00 %
16.10.2016 00:12 11,1 C 96 % 1018,0 hPa 0,0 l/m 0,4 km/h (0 Bft) S-SO 167 0 min 0,000 mm 0,0 UV-I 0 W/m 10,5 C 11,1 C 1,6 km/h (1 Bft) 98,00 %
16.10.2016 00:14 11,1 C 96 % 1018,0 hPa 0,0 l/m 0,8 km/h (0 Bft) S-SO 167 0 min 0,000 mm 0,0 UV-I 0 W/m 10,5 C 11,1 C 4,8 km/h (1 Bft) 95,74 %
16.10.2016 00:16 11,2 C 96 % 1018,0 hPa 0,0 l/m 1,9 km/h (1 Bft) S-SO 167 0 min 0,000 mm 0,0 UV-I 0 W/m 10,6 C 11,2 C 4,8 km/h (1 Bft) 96,00 %
16.10.2016 00:18 11,0 C 95 % 1018,1 hPa 0,0 l/m 1,5 km/h (1 Bft) S-SO 167 0 min 0,000 mm 0,0 UV-I 0 W/m 10,2 C 11,0 C 4,8 km/h (1 Bft) 95,74 %
16.10.2016 00:20 10,8 C 95 % 1018,1 hPa 0,0 l/m 1,6 km/h (1 Bft) S-SO 167 0 min 0,000 mm 0,0 UV-I 0 W/m 10,0 C 10,8 C 4,8 km/h (1 Bft) 94,29 %
16.10.2016 00:22 10,7 C 95 % 1018,1 hPa 0,0 l/m 1,4 km/h (1 Bft) S-SO 167 0 min 0,000 mm 0,0 UV-I 0 W/m 9,9 C 10,7 C 1,6 km/h (1 Bft) 98,00 %
16.10.2016 00:24 10,6 C 95 % 1018,2 hPa 0,0 l/m 2,3 km/h (1 Bft) S-SO 167 0 min 0,000 mm 0,0 UV-I 0 W/m 9,8 C 10,6 C 4,8 km/h (1 Bft) 100,00 %
16.10.2016 00:26 10,5 C 95 % 1018,1 hPa 0,0 l/m 2,3 km/h (1 Bft) S-SO 167 0 min 0,000 mm 0,0 UV-I 0 W/m 9,7 C 10,5 C 4,8 km/h (1 Bft) 94,29 %
16.10.2016 00:28 10,4 C 95 % 1018,2 hPa 0,0 l/m 1,8 km/h (1 Bft) S-SO 167 0 min 0,000 mm 0,0 UV-I 0 W/m 9,6 C 10,4 C 4,8 km/h (1 Bft) 98,11 %
16.10.2016 00:30 10,4 C 95 % 1018,2 hPa 0,0 l/m 1,7 km/h (1 Bft) S-SO 167 0 min 0,000 mm 0,0 UV-I 0 W/m 9,6 C 10,4 C 4,8 km/h (1 Bft) 98,00 %
16.10.2016 00:32 10,5 C 96 % 1018,1 hPa 0,0 l/m 1,5 km/h (1 Bft) S-SO 167 0 min 0,000 mm 0,0 UV-I 0 W/m 9,9 C 10,5 C 4,8 km/h (1 Bft) 100,00 %
16.10.2016 00:34 10,6 C 96 % 1018,2 hPa 0,0 l/m 0,7 km/h (0 Bft) S-SO 167 0 min 0,000 mm 0,0 UV-I 0 W/m 10,0 C 10,6 C 1,6 km/h (1 Bft) 100,00 %
16.10.2016 00:36 10,6 C 96 % 1018,2 hPa 0,0 l/m 0,2 km/h (0 Bft) S-SO 167 0 min 0,000 mm 0,0 UV-I 0 W/m 10,0 C 10,6 C 1,6 km/h (1 Bft) 100,00 %
16.10.2016 00:38 10,6 C 96 % 1018,2 hPa 0,0 l/m 0,0 km/h (0 Bft) S-SO 167 0 min 0,000 mm 0,0 UV-I 0 W/m 10,0 C 10,6 C 0,0 km/h (0 Bft) 100,00 %
16.10.2016 00:40 10,7 C 96 % 1018,2 hPa 0,0 l/m 3,0 km/h (1 Bft) S-SO 167 0 min 0,000 mm 0,0 UV-I 0 W/m 10,1 C 10,7 C 4,8 km/h (1 Bft) 100,00 %
16.10.2016 00:42 10,7 C 96 % 1018,3 hPa 0,0 l/m 4,1 km/h (1 Bft) S-SO 167 0 min 0,000 mm 0,0 UV-I 0 W/m 10,1 C 10,7 C 6,4 km/h (2 Bft) 100,00 %
16.10.2016 00:44 10,8 C 96 % 1018,3 hPa 0,0 l/m 4,3 km/h (1 Bft) S 184 0 min 0,000 mm 0,0 UV-I 0 W/m 10,2 C 10,8 C 6,4 km/h (2 Bft) 100,00 %
16.10.2016 00:46 10,7 C 96 % 1018,3 hPa 0,0 l/m 2,7 km/h (1 Bft) S 184 0 min 0,000 mm 0,0 UV-I 0 W/m 10,1 C 10,7 C 4,8 km/h (1 Bft) 100,00 %
16.10.2016 00:48 10,7 C 96 % 1018,2 hPa 0,0 l/m 0,7 km/h (0 Bft) S 184 0 min 0,000 mm 0,0 UV-I 0 W/m 10,1 C 10,7 C 3,2 km/h (1 Bft) 98,00 %
16.10.2016 00:50 10,7 C 96 % 1018,2 hPa 0,0 l/m 1,1 km/h (1 Bft) S 184 0 min 0,000 mm 0,0 UV-I 0 W/m 10,1 C 10,7 C 1,6 km/h (1 Bft) 100,00 %
16.10.2016 00:52 10,7 C 96 % 1018,2 hPa 0,0 l/m 1,0 km/h (0 Bft) S 184 0 min 0,000 mm 0,0 UV-I 0 W/m 10,1 C 10,7 C 3,2 km/h (1 Bft) 100,00 %
16.10.2016 00:54 10,8 C 96 % 1018,3 hPa 0,0 l/m 1,9 km/h (1 Bft) S 184 0 min 0,000 mm 0,0 UV-I 0 W/m 10,2 C 10,8 C 4,8 km/h (1 Bft) 100,00 %
16.10.2016 00:56 10,9 C 96 % 1018,3 hPa 0,0 l/m 3,5 km/h (1 Bft) S 183 0 min 0,000 mm 0,0 UV-I 0 W/m 10,3 C 10,9 C 4,8 km/h (1 Bft) 100,00 %
16.10.2016 00:58 11,0 C 96 % 1018,2 hPa 0,0 l/m 3,0 km/h (1 Bft) S 183 0 min 0,000 mm 0,0 UV-I 0 W/m 10,4 C 11,0 C 4,8 km/h (1 Bft) 100,00 %
16.10.2016 01:00 11,1 C 96 % 1018,3 hPa 0,0 l/m 2,0 km/h (1 Bft) S 183 0 min 0,000 mm 0,0 UV-I 0 W/m 10,5 C 11,1 C 3,2 km/h (1 Bft) 98,00 %
16.10.2016 01:02 11,1 C 96 % 1018,3 hPa 0,0 l/m 1,5 km/h (1 Bft) S 183 0 min 0,000 mm 0,0 UV-I 0 W/m 10,5 C 11,1 C 3,2 km/h (1 Bft) 100,00 %
16.10.2016 01:04 11,2 C 96 % 1018,2 hPa 0,0 l/m 1,3 km/h (1 Bft) S 183 0 min 0,000 mm 0,0 UV-I 0 W/m 10,6 C 11,2 C 3,2 km/h (1 Bft) 100,00 %
16.10.2016 01:06 11,2 C 96 % 1018,3 hPa 0,0 l/m 0,9 km/h (0 Bft) S 183 0 min 0,000 mm 0,0 UV-I 0 W/m 10,6 C 11,2 C 3,2 km/h (1 Bft) 97,87 %
16.10.2016 01:08 11,3 C 96 % 1018,3 hPa 0,0 l/m 0,6 km/h (0 Bft) S 183 0 min 0,000 mm 0,0 UV-I 0 W/m 10,7 C 11,3 C 1,6 km/h (1 Bft) 100,00 %
16.10.2016 01:10 11,3 C 95 % 1018,3 hPa 0,0 l/m 1,3 km/h (1 Bft) S 183 0 min 0,000 mm 0,0 UV-I 0 W/m 10,5 C 11,3 C 3,2 km/h (1 Bft) 100,00 %
16.10.2016 01:12 11,4 C 95 % 1018,3 hPa 0,0 l/m 1,0 km/h (0 Bft) S 183 0 min 0,000 mm 0,0 UV-I 0 W/m 10,6 C 11,4 C 3,2 km/h (1 Bft) 98,00 %
16.10.2016 01:14 11,4 C 95 % 1018,4 hPa 0,0 l/m 1,7 km/h (1 Bft) S 183 0 min 0,000 mm 0,0 UV-I 0 W/m 10,6 C 11,4 C 3,2 km/h (1 Bft) 100,00 %
16.10.2016 01:16 11,4 C 95 % 1018,4 hPa 0,0 l/m 2,2 km/h (1 Bft) S 183 0 min 0,000 mm 0,0 UV-I 0 W/m 10,6 C 11,4 C 3,2 km/h (1 Bft) 100,00 %
16.10.2016 01:18 11,4 C 95 % 1018,3 hPa 0,0 l/m 1,5 km/h (1 Bft) S 183 0 min 0,000 mm 0,0 UV-I 0 W/m 10,6 C 11,4 C 3,2 km/h (1 Bft) 97,87 %
16.10.2016 01:20 11,4 C 95 % 1018,4 hPa 0,0 l/m 2,2 km/h (1 Bft) S 183 0 min 0,000 mm 0,0 UV-I 0 W/m 10,6 C 11,4 C 4,8 km/h (1 Bft) 100,00 %
16.10.2016 01:22 11,4 C 95 % 1018,4 hPa 0,0 l/m 2,0 km/h (1 Bft) S 183 0 min 0,000 mm 0,0 UV-I 0 W/m 10,6 C 11,4 C 3,2 km/h (1 Bft) 100,00 %
16.10.2016 01:24 11,4 C 95 % 1018,4 hPa 0,0 l/m 1,3 km/h (1 Bft) S 183 0 min 0,000 mm 0,0 UV-I 0 W/m 10,6 C 11,4 C 1,6 km/h (1 Bft) 97,87 %
16.10.2016 01:26 11,4 C 94 % 1018,5 hPa 0,0 l/m 1,2 km/h (1 Bft) S 183 0 min 0,000 mm 0,0 UV-I 0 W/m 10,5 C 11,4 C 3,2 km/h (1 Bft) 100,00 %
16.10.2016 01:28 11,4 C 94 % 1018,4 hPa 0,0 l/m 0,5 km/h (0 Bft) S 183 0 min 0,000 mm 0,0 UV-I 0 W/m 10,5 C 11,4 C 1,6 km/h (1 Bft) 100,00 %
16.10.2016 01:30 11,3 C 94 % 1018,4 hPa 0,0 l/m 0,6 km/h (0 Bft) S 183 0 min 0,000 mm 0,0 UV-I 0 W/m 10,4 C 11,3 C 3,2 km/h (1 Bft) 95,74 %
16.10.2016 01:32 11,2 C 94 % 1018,4 hPa 0,0 l/m 1,4 km/h (1 Bft) S 183 0 min 0,000 mm 0,0 UV-I 0 W/m 10,3 C 11,2 C 3,2 km/h (1 Bft) 97,87 %
16.10.2016 01:34 11,1 C 94 % 1018,4 hPa 0,0 l/m 0,9 km/h (0 Bft) S 183 0 min 0,000 mm 0,0 UV-I 0 W/m 10,2 C 11,1 C 3,2 km/h (1 Bft) 100,00 %
16.10.2016 01:36 11,0 C 95 % 1018,4 hPa 0,0 l/m 0,0 km/h (0 Bft) S 183 0 min 0,000 mm 0,0 UV-I 0 W/m 10,2 C 11,0 C 0,0 km/h (0 Bft) 100,00 %
16.10.2016 01:38 11,0 C 95 % 1018,4 hPa 0,0 l/m 0,5 km/h (0 Bft) S 183 0 min 0,000 mm 0,0 UV-I 0 W/m 10,2 C 11,0 C 1,6 km/h (1 Bft) 97,73 %
16.10.2016 01:40 11,0 C 95 % 1018,5 hPa 0,0 l/m 0,8 km/h (0 Bft) S 183 0 min 0,000 mm 0,0 UV-I 0 W/m 10,2 C 11,0 C 3,2 km/h (1 Bft) 100,00 %
16.10.2016 01:42 11,0 C 95 % 1018,4 hPa 0,0 l/m 1,1 km/h (1 Bft) S 183 0 min 0,000 mm 0,0 UV-I 0 W/m 10,2 C 11,0 C 3,2 km/h (1 Bft) 100,00 %
16.10.2016 01:44 11,0 C 95 % 1018,5 hPa 0,0 l/m 0,7 km/h (0 Bft) S 183 0 min 0,000 mm 0,0 UV-I 0 W/m 10,2 C 11,0 C 3,2 km/h (1 Bft) 97,87 %
16.10.2016 01:46 11,0 C 95 % 1018,5 hPa 0,0 l/m 1,7 km/h (1 Bft) S 183 0 min 0,000 mm 0,0 UV-I 0 W/m 10,2 C 11,0 C 3,2 km/h (1 Bft) 100,00 %
16.10.2016 01:48 10,9 C 95 % 1018,5 hPa 0,0 l/m 2,5 km/h (1 Bft) S 183 0 min 0,000 mm 0,0 UV-I 0 W/m 10,1 C 10,9 C 3,2 km/h (1 Bft) 98,00 %
16.10.2016 01:50 10,8 C 95 % 1018,5 hPa 0,0 l/m 3,3 km/h (1 Bft) S 183 0 min 0,000 mm 0,0 UV-I 0 W/m 10,0 C 10,8 C 4,8 km/h (1 Bft) 97,37 %
16.10.2016 01:52 10,7 C 95 % 1018,6 hPa 0,0 l/m 3,5 km/h (1 Bft) S 183 0 min 0,000 mm 0,0 UV-I 0 W/m 9,9 C 10,7 C 4,8 km/h (1 Bft) 97,87 %
16.10.2016 01:54 10,6 C 95 % 1018,5 hPa 0,0 l/m 3,0 km/h (1 Bft) S 183 0 min 0,000 mm 0,0 UV-I 0 W/m 9,8 C 10,6 C 4,8 km/h (1 Bft) 98,11 %
16.10.2016 01:56 10,6 C 95 % 1018,5 hPa 0,0 l/m 3,6 km/h (1 Bft) S 183 0 min 0,000 mm 0,0 UV-I 0 W/m 9,8 C 10,6 C 4,8 km/h (1 Bft) 95,74 %
16.10.2016 01:58 10,6 C 95 % 1018,6 hPa 0,0 l/m 3,9 km/h (1 Bft) S 183 0 min 0,000 mm 0,0 UV-I 0 W/m 9,8 C 10,6 C 4,8 km/h (1 Bft) 93,62 %
16.10.2016 02:00 10,6 C 96 % 1018,6 hPa 0,0 l/m 3,5 km/h (1 Bft) S 183 0 min 0,000 mm 0,0 UV-I 0 W/m 10,0 C 10,6 C 4,8 km/h (1 Bft) 97,92 %
16.10.2016 02:02 10,5 C 96 % 1018,6 hPa 0,0 l/m 3,1 km/h (1 Bft) S 183 0 min 0,000 mm 0,0 UV-I 0 W/m 9,9 C 10,5 C 4,8 km/h (1 Bft) 95,12 %
16.10.2016 02:04 10,6 C 96 % 1018,7 hPa 0,0 l/m 2,3 km/h (1 Bft) S 183 0 min 0,000 mm 0,0 UV-I 0 W/m 10,0 C 10,6 C 3,2 km/h (1 Bft) 96,00 %
16.10.2016 02:06 10,6 C 96 % 1018,7 hPa 0,0 l/m 1,6 km/h (1 Bft) S 183 0 min 0,000 mm 0,0 UV-I 0 W/m 10,0 C 10,6 C 3,2 km/h (1 Bft) 96,00 %
16.10.2016 02:08 10,6 C 96 % 1018,7 hPa 0,0 l/m 1,5 km/h (1 Bft) S 183 0 min 0,000 mm 0,0 UV-I 0 W/m 10,0 C 10,6 C 3,2 km/h (1 Bft) 97,73 %
16.10.2016 02:10 10,6 C 96 % 1018,8 hPa 0,0 l/m 2,5 km/h (1 Bft) S 183 0 min 0,000 mm 0,0 UV-I 0 W/m 10,0 C 10,6 C 3,2 km/h (1 Bft) 98,00 %
16.10.2016 02:12 10,6 C 96 % 1018,7 hPa 0,0 l/m 3,0 km/h (1 Bft) S 183 0 min 0,000 mm 0,0 UV-I 0 W/m 10,0 C 10,6 C 4,8 km/h (1 Bft) 95,74 %
16.10.2016 02:14 10,6 C 96 % 1018,8 hPa 0,0 l/m 2,6 km/h (1 Bft) S 183 0 min 0,000 mm 0,0 UV-I 0 W/m 10,0 C 10,6 C 3,2 km/h (1 Bft) 94,74 %
16.10.2016 02:16 10,6 C 96 % 1018,8 hPa 0,0 l/m 3,5 km/h (1 Bft) S 183 0 min 0,000 mm 0,0 UV-I 0 W/m 10,0 C 10,6 C 4,8 km/h (1 Bft) 96,00 %
16.10.2016 02:18 10,6 C 96 % 1018,9 hPa 0,0 l/m 2,3 km/h (1 Bft) S 184 0 min 0,000 mm 0,0 UV-I 0 W/m 10,0 C 10,6 C 4,8 km/h (1 Bft) 98,00 %
16.10.2016 02:20 10,6 C 96 % 1018,9 hPa 0,0 l/m 3,2 km/h (1 Bft) S 184 0 min 0,000 mm 0,0 UV-I 0 W/m 10,0 C 10,6 C 4,8 km/h (1 Bft) 94,29 %
16.10.2016 02:22 10,7 C 96 % 1018,9 hPa 0,0 l/m 2,9 km/h (1 Bft) S 184 0 min 0,000 mm 0,0 UV-I 0 W/m 10,1 C 10,7 C 4,8 km/h (1 Bft) 96,08 %
16.10.2016 02:24 10,7 C 96 % 1018,9 hPa 0,0 l/m 2,0 km/h (1 Bft) S 184 0 min 0,000 mm 0,0 UV-I 0 W/m 10,1 C 10,7 C 3,2 km/h (1 Bft) 98,11 %
16.10.2016 02:26 10,7 C 96 % 1018,9 hPa 0,0 l/m 1,6 km/h (1 Bft) S 184 0 min 0,000 mm 0,0 UV-I 0 W/m 10,1 C 10,7 C 3,2 km/h (1 Bft) 97,87 %
16.10.2016 02:28 10,7 C 95 % 1019,0 hPa 0,0 l/m 0,8 km/h (0 Bft) S 184 0 min 0,000 mm 0,0 UV-I 0 W/m 9,9 C 10,7 C 1,6 km/h (1 Bft) 98,00 %
16.10.2016 02:30 10,7 C 96 % 1018,9 hPa 0,0 l/m 0,4 km/h (0 Bft) S 184 0 min 0,000 mm 0,0 UV-I 0 W/m 10,1 C 10,7 C 1,6 km/h (1 Bft) 97,37 %
16.10.2016 02:32 10,7 C 95 % 1019,0 hPa 0,0 l/m 0,0 km/h (0 Bft) S 184 0 min 0,000 mm 0,0 UV-I 0 W/m 9,9 C 10,7 C 0,0 km/h (0 Bft) 96,00 %
16.10.2016 02:34 10,7 C 95 % 1018,9 hPa 0,0 l/m 0,3 km/h (0 Bft) S 184 0 min 0,000 mm 0,0 UV-I 0 W/m 9,9 C 10,7 C 1,6 km/h (1 Bft) 100,00 %
16.10.2016 02:36 10,7 C 95 % 1018,9 hPa 0,0 l/m 0,1 km/h (0 Bft) S 184 0 min 0,000 mm 0,0 UV-I 0 W/m 9,9 C 10,7 C 1,6 km/h (1 Bft) 98,00 %
16.10.2016 02:38 10,7 C 95 % 1018,9 hPa 0,0 l/m 0,5 km/h (0 Bft) S 184 0 min 0,000 mm 0,0 UV-I 0 W/m 9,9 C 10,7 C 1,6 km/h (1 Bft) 97,62 %
16.10.2016 02:40 10,7 C 95 % 1019,0 hPa 0,0 l/m 0,2 km/h (0 Bft) S 184 0 min 0,000 mm 0,0 UV-I 0 W/m 9,9 C 10,7 C 1,6 km/h (1 Bft) 100,00 %
16.10.2016 02:42 10,6 C 95 % 1019,0 hPa 0,0 l/m 0,1 km/h (0 Bft) S 184 0 min 0,000 mm 0,0 UV-I 0 W/m 9,8 C 10,6 C 1,6 km/h (1 Bft) 98,00 %
16.10.2016 02:44 10,6 C 95 % 1019,0 hPa 0,0 l/m 0,3 km/h (0 Bft) S 184 0 min 0,000 mm 0,0 UV-I 0 W/m 9,8 C 10,6 C 1,6 km/h (1 Bft) 100,00 %
16.10.2016 02:46 10,5 C 95 % 1019,1 hPa 0,0 l/m 0,1 km/h (0 Bft) S 184 0 min 0,000 mm 0,0 UV-I 0 W/m 9,7 C 10,5 C 1,6 km/h (1 Bft) 100,00 %
16.10.2016 02:48 10,4 C 95 % 1019,1 hPa 0,0 l/m 1,9 km/h (1 Bft) S 184 0 min 0,000 mm 0,0 UV-I 0 W/m 9,6 C 10,4 C 3,2 km/h (1 Bft) 98,21 %
16.10.2016 02:50 10,5 C 95 % 1019,1 hPa 0,0 l/m 2,2 km/h (1 Bft) S 184 0 min 0,000 mm 0,0 UV-I 0 W/m 9,7 C 10,5 C 3,2 km/h (1 Bft) 100,00 %
16.10.2016 02:52 10,5 C 96 % 1019,1 hPa 0,0 l/m 2,7 km/h (1 Bft) S 184 0 min 0,000 mm 0,0 UV-I 0 W/m 9,9 C 10,5 C 4,8 km/h (1 Bft) 100,00 %
16.10.2016 02:54 10,5 C 96 % 1019,1 hPa 0,0 l/m 2,2 km/h (1 Bft) S 184 0 min 0,000 mm 0,0 UV-I 0 W/m 9,9 C 10,5 C 3,2 km/h (1 Bft) 100,00 %
16.10.2016 02:56 10,4 C 95 % 1019,1 hPa 0,0 l/m 1,7 km/h (1 Bft) S 184 0 min 0,000 mm 0,0 UV-I 0 W/m 9,6 C 10,4 C 3,2 km/h (1 Bft) 100,00 %
16.10.2016 02:58 10,4 C 95 % 1019,1 hPa 0,0 l/m 2,0 km/h (1 Bft) S 184 0 min 0,000 mm 0,0 UV-I 0 W/m 9,6 C 10,4 C 3,2 km/h (1 Bft) 100,00 %
16.10.2016 03:00 10,4 C 96 % 1019,1 hPa 0,0 l/m 2,4 km/h (1 Bft) S 184 0 min 0,000 mm 0,0 UV-I 0 W/m 9,8 C 10,4 C 4,8 km/h (1 Bft) 98,00 %
16.10.2016 03:02 10,4 C 96 % 1019,1 hPa 0,0 l/m 2,1 km/h (1 Bft) S 184 0 min 0,000 mm 0,0 UV-I 0 W/m 9,8 C 10,4 C 3,2 km/h (1 Bft) 100,00 %
16.10.2016 03:04 10,4 C 96 % 1019,1 hPa 0,0 l/m 2,3 km/h (1 Bft) S 184 0 min 0,000 mm 0,0 UV-I 0 W/m 9,8 C 10,4 C 4,8 km/h (1 Bft) 100,00 %
16.10.2016 03:06 10,6 C 96 % 1019,1 hPa 0,0 l/m 1,5 km/h (1 Bft) S 184 0 min 0,000 mm 0,0 UV-I 0 W/m 10,0 C 10,6 C 3,2 km/h (1 Bft) 100,00 %
16.10.2016 03:08 10,6 C 96 % 1019,1 hPa 0,0 l/m 2,0 km/h (1 Bft) S 184 0 min 0,000 mm 0,0 UV-I 0 W/m 10,0 C 10,6 C 4,8 km/h (1 Bft) 100,00 %
16.10.2016 03:10 10,7 C 96 % 1019,1 hPa 0,0 l/m 3,1 km/h (1 Bft) S 184 0 min 0,000 mm 0,0 UV-I 0 W/m 10,1 C 10,7 C 4,8 km/h (1 Bft) 100,00 %
16.10.2016 03:12 10,8 C 96 % 1019,1 hPa 0,0 l/m 3,9 km/h (1 Bft) S 184 0 min 0,000 mm 0,0 UV-I 0 W/m 10,2 C 10,8 C 4,8 km/h (1 Bft) 100,00 %
16.10.2016 03:14 10,8 C 96 % 1019,1 hPa 0,0 l/m 2,9 km/h (1 Bft) S 184 0 min 0,000 mm 0,0 UV-I 0 W/m 10,2 C 10,8 C 6,4 km/h (2 Bft) 96,23 %
16.10.2016 03:16 10,9 C 96 % 1019,1 hPa 0,0 l/m 3,6 km/h (1 Bft) S 184 0 min 0,000 mm 0,0 UV-I 0 W/m 10,3 C 10,9 C 6,4 km/h (2 Bft) 100,00 %
16.10.2016 03:18 10,9 C 96 % 1019,1 hPa 0,0 l/m 2,5 km/h (1 Bft) S 184 0 min 0,000 mm 0,0 UV-I 0 W/m 10,3 C 10,9 C 4,8 km/h (1 Bft) 98,11 %
16.10.2016 03:20 10,9 C 96 % 1019,2 hPa 0,0 l/m 3,6 km/h (1 Bft) S 184 0 min 0,000 mm 0,0 UV-I 0 W/m 10,3 C 10,9 C 4,8 km/h (1 Bft) 100,00 %
16.10.2016 03:22 11,0 C 96 % 1019,2 hPa 0,0 l/m 2,9 km/h (1 Bft) S 184 0 min 0,000 mm 0,0 UV-I 0 W/m 10,4 C 11,0 C 4,8 km/h (1 Bft) 98,11 %
16.10.2016 03:24 11,1 C 96 % 1019,2 hPa 0,0 l/m 2,8 km/h (1 Bft) S 184 0 min 0,000 mm 0,0 UV-I 0 W/m 10,5 C 11,1 C 3,2 km/h (1 Bft) 100,00 %
16.10.2016 03:26 11,1 C 96 % 1019,2 hPa 0,0 l/m 3,1 km/h (1 Bft) S 184 0 min 0,000 mm 0,0 UV-I 0 W/m 10,5 C 11,1 C 4,8 km/h (1 Bft) 100,00 %
16.10.2016 03:28 11,1 C 96 % 1019,1 hPa 0,0 l/m 3,6 km/h (1 Bft) S 184 0 min 0,000 mm 0,0 UV-I 0 W/m 10,5 C 11,1 C 4,8 km/h (1 Bft) 100,00 %
16.10.2016 03:30 11,1 C 96 % 1019,2 hPa 0,0 l/m 3,5 km/h (1 Bft) S 184 0 min 0,000 mm 0,0 UV-I 0 W/m 10,5 C 11,1 C 4,8 km/h (1 Bft) 100,00 %
16.10.2016 03:32 11,1 C 96 % 1019,2 hPa 0,0 l/m 1,9 km/h (1 Bft) S 184 0 min 0,000 mm 0,0 UV-I 0 W/m 10,5 C 11,1 C 3,2 km/h (1 Bft) 98,11 %
16.10.2016 03:34 11,1 C 96 % 1019,2 hPa 0,0 l/m 2,3 km/h (1 Bft) S 184 0 min 0,000 mm 0,0 UV-I 0 W/m 10,5 C 11,1 C 3,2 km/h (1 Bft) 100,00 %
16.10.2016 03:36 11,1 C 96 % 1019,2 hPa 0,0 l/m 2,4 km/h (1 Bft) S 184 0 min 0,000 mm 0,0 UV-I 0 W/m 10,5 C 11,1 C 3,2 km/h (1 Bft) 100,00 %
16.10.2016 03:38 11,2 C 96 % 1019,1 hPa 0,0 l/m 1,6 km/h (1 Bft) S 184 0 min 0,000 mm 0,0 UV-I 0 W/m 10,6 C 11,2 C 6,4 km/h (2 Bft) 100,00 %
16.10.2016 03:40 11,2 C 96 % 1019,2 hPa 0,0 l/m 4,1 km/h (1 Bft) S 188 0 min 0,000 mm 0,0 UV-I 0 W/m 10,6 C 11,2 C 6,4 km/h (2 Bft) 97,87 %
16.10.2016 03:42 11,2 C 96 % 1019,2 hPa 0,0 l/m 3,1 km/h (1 Bft) S 188 0 min 0,000 mm 0,0 UV-I 0 W/m 10,6 C 11,2 C 4,8 km/h (1 Bft) 100,00 %
16.10.2016 03:44 11,2 C 96 % 1019,2 hPa 0,0 l/m 2,4 km/h (1 Bft) S 188 0 min 0,000 mm 0,0 UV-I 0 W/m 10,6 C 11,2 C 4,8 km/h (1 Bft) 98,00 %
16.10.2016 03:46 11,2 C 96 % 1019,2 hPa 0,0 l/m 1,3 km/h (1 Bft) S 188 0 min 0,000 mm 0,0 UV-I 0 W/m 10,6 C 11,2 C 3,2 km/h (1 Bft) 100,00 %
16.10.2016 03:48 11,1 C 96 % 1019,1 hPa 0,0 l/m 0,8 km/h (0 Bft) S 188 0 min 0,000 mm 0,0 UV-I 0 W/m 10,5 C 11,1 C 3,2 km/h (1 Bft) 100,00 %
16.10.2016 03:50 11,1 C 96 % 1019,1 hPa 0,0 l/m 1,9 km/h (1 Bft) S 188 0 min 0,000 mm 0,0 UV-I 0 W/m 10,5 C 11,1 C 3,2 km/h (1 Bft) 100,00 %
16.10.2016 03:52 11,1 C 96 % 1019,2 hPa 0,0 l/m 0,9 km/h (0 Bft) S 188 0 min 0,000 mm 0,0 UV-I 0 W/m 10,5 C 11,1 C 3,2 km/h (1 Bft) 100,00 %
16.10.2016 03:54 11,1 C 96 % 1019,2 hPa 0,0 l/m 1,3 km/h (1 Bft) S 188 0 min 0,000 mm 0,0 UV-I 0 W/m 10,5 C 11,1 C 3,2 km/h (1 Bft) 100,00 %
16.10.2016 03:56 11,1 C 96 % 1019,2 hPa 0,0 l/m 1,3 km/h (1 Bft) S 188 0 min 0,000 mm 0,0 UV-I 0 W/m 10,5 C 11,1 C 3,2 km/h (1 Bft) 100,00 %
16.10.2016 03:58 11,1 C 96 % 1019,2 hPa 0,0 l/m 2,2 km/h (1 Bft) S 188 0 min 0,000 mm 0,0 UV-I 0 W/m 10,5 C 11,1 C 3,2 km/h (1 Bft) 100,00 %
16.10.2016 04:00 11,2 C 96 % 1019,2 hPa 0,0 l/m 2,1 km/h (1 Bft) S 188 0 min 0,000 mm 0,0 UV-I 0 W/m 10,6 C 11,2 C 4,8 km/h (1 Bft) 98,11 %
16.10.2016 04:02 11,2 C 96 % 1019,2 hPa 0,0 l/m 1,6 km/h (1 Bft) S 188 0 min 0,000 mm 0,0 UV-I 0 W/m 10,6 C 11,2 C 3,2 km/h (1 Bft) 100,00 %
16.10.2016 04:04 11,2 C 96 % 1019,2 hPa 0,0 l/m 2,1 km/h (1 Bft) S 188 0 min 0,000 mm 0,0 UV-I 0 W/m 10,6 C 11,2 C 4,8 km/h (1 Bft) 97,56 %
16.10.2016 04:06 11,2 C 96 % 1019,2 hPa 0,0 l/m 1,9 km/h (1 Bft) S 188 0 min 0,000 mm 0,0 UV-I 0 W/m 10,6 C 11,2 C 3,2 km/h (1 Bft) 96,23 %
16.10.2016 04:08 11,2 C 96 % 1019,2 hPa 0,0 l/m 1,9 km/h (1 Bft) S 188 0 min 0,000 mm 0,0 UV-I 0 W/m 10,6 C 11,2 C 3,2 km/h (1 Bft) 97,37 %
16.10.2016 04:10 11,2 C 96 % 1019,2 hPa 0,0 l/m 3,3 km/h (1 Bft) S 188 0 min 0,000 mm 0,0 UV-I 0 W/m 10,6 C 11,2 C 4,8 km/h (1 Bft) 98,00 %
16.10.2016 04:12 11,2 C 96 % 1019,2 hPa 0,0 l/m 1,9 km/h (1 Bft) S 188 0 min 0,000 mm 0,0 UV-I 0 W/m 10,6 C 11,2 C 4,8 km/h (1 Bft) 95,74 %
16.10.2016 04:14 11,2 C 96 % 1019,2 hPa 0,0 l/m 1,5 km/h (1 Bft) S 188 0 min 0,000 mm 0,0 UV-I 0 W/m 10,6 C 11,2 C 3,2 km/h (1 Bft) 98,00 %
16.10.2016 04:16 11,2 C 96 % 1019,2 hPa 0,0 l/m 0,3 km/h (0 Bft) S 188 0 min 0,000 mm 0,0 UV-I 0 W/m 10,6 C 11,2 C 1,6 km/h (1 Bft) 96,00 %
16.10.2016 04:18 11,1 C 96 % 1019,2 hPa 0,0 l/m 0,4 km/h (0 Bft) S 188 0 min 0,000 mm 0,0 UV-I 0 W/m 10,5 C 11,1 C 1,6 km/h (1 Bft) 97,56 %
16.10.2016 04:20 11,0 C 96 % 1019,1 hPa 0,0 l/m 0,4 km/h (0 Bft) S 188 0 min 0,000 mm 0,0 UV-I 0 W/m 10,4 C 11,0 C 1,6 km/h (1 Bft) 98,11 %
16.10.2016 04:22 11,0 C 96 % 1019,1 hPa 0,0 l/m 0,0 km/h (0 Bft) S 188 0 min 0,000 mm 0,0 UV-I 0 W/m 10,4 C 11,0 C 1,6 km/h (1 Bft) 97,37 %
16.10.2016 04:24 11,0 C 96 % 1019,1 hPa 0,0 l/m 0,1 km/h (0 Bft) S 188 0 min 0,000 mm 0,0 UV-I 0 W/m 10,4 C 11,0 C 1,6 km/h (1 Bft) 98,00 %
16.10.2016 04:26 11,0 C 96 % 1019,1 hPa 0,0 l/m 0,4 km/h (0 Bft) S 188 0 min 0,000 mm 0,0 UV-I 0 W/m 10,4 C 11,0 C 1,6 km/h (1 Bft) 98,00 %
16.10.2016 04:28 11,0 C 96 % 1019,1 hPa 0,0 l/m 0,2 km/h (0 Bft) S 188 0 min 0,000 mm 0,0 UV-I 0 W/m 10,4 C 11,0 C 1,6 km/h (1 Bft) 95,74 %
16.10.2016 04:30 10,9 C 96 % 1019,1 hPa 0,0 l/m 0,3 km/h (0 Bft) S 188 0 min 0,000 mm 0,0 UV-I 0 W/m 10,3 C 10,9 C 1,6 km/h (1 Bft) 97,44 %
16.10.2016 04:32 10,9 C 96 % 1019,1 hPa 0,0 l/m 0,4 km/h (0 Bft) S 188 0 min 0,000 mm 0,0 UV-I 0 W/m 10,3 C 10,9 C 1,6 km/h (1 Bft) 97,37 %
16.10.2016 04:34 10,8 C 96 % 1019,1 hPa 0,0 l/m 0,7 km/h (0 Bft) S 188 0 min 0,000 mm 0,0 UV-I 0 W/m 10,2 C 10,8 C 3,2 km/h (1 Bft) 96,88 %
16.10.2016 04:36 10,7 C 96 % 1019,1 hPa 0,0 l/m 0,7 km/h (0 Bft) S 188 0 min 0,000 mm 0,0 UV-I 0 W/m 10,1 C 10,7 C 3,2 km/h (1 Bft) 97,87 %
16.10.2016 04:38 10,7 C 96 % 1019,1 hPa 0,0 l/m 1,6 km/h (1 Bft) S 188 0 min 0,000 mm 0,0 UV-I 0 W/m 10,1 C 10,7 C 3,2 km/h (1 Bft) 100,00 %
16.10.2016 04:40 10,7 C 96 % 1019,1 hPa 0,0 l/m 0,3 km/h (0 Bft) S 188 0 min 0,000 mm 0,0 UV-I 0 W/m 10,1 C 10,7 C 1,6 km/h (1 Bft) 100,00 %
16.10.2016 04:42 10,7 C 96 % 1019,1 hPa 0,0 l/m 0,3 km/h (0 Bft) S 188 0 min 0,000 mm 0,0 UV-I 0 W/m 10,1 C 10,7 C 1,6 km/h (1 Bft) 98,00 %
16.10.2016 04:44 10,7 C 96 % 1019,1 hPa 0,0 l/m 0,0 km/h (0 Bft) S 188 0 min 0,000 mm 0,0 UV-I 0 W/m 10,1 C 10,7 C 0,0 km/h (0 Bft) 100,00 %
16.10.2016 04:46 10,7 C 96 % 1019,2 hPa 0,0 l/m 0,1 km/h (0 Bft) S 188 0 min 0,000 mm 0,0 UV-I 0 W/m 10,1 C 10,7 C 1,6 km/h (1 Bft) 100,00 %
16.10.2016 04:48 10,6 C 96 % 1019,2 hPa 0,0 l/m 0,2 km/h (0 Bft) S 188 0 min 0,000 mm 0,0 UV-I 0 W/m 10,0 C 10,6 C 1,6 km/h (1 Bft) 100,00 %
16.10.2016 04:50 10,4 C 96 % 1019,2 hPa 0,0 l/m 0,0 km/h (0 Bft) S 188 0 min 0,000 mm 0,0 UV-I 0 W/m 9,8 C 10,4 C 0,0 km/h (0 Bft) 100,00 %
16.10.2016 04:52 10,3 C 96 % 1019,2 hPa 0,0 l/m 0,0 km/h (0 Bft) S 188 0 min 0,000 mm 0,0 UV-I 0 W/m 9,7 C 10,3 C 0,0 km/h (0 Bft) 100,00 %
16.10.2016 04:54 10,3 C 96 % 1019,3 hPa 0,0 l/m 0,0 km/h (0 Bft) S 188 0 min 0,000 mm 0,0 UV-I 0 W/m 9,7 C 10,3 C 0,0 km/h (0 Bft) 97,87 %
16.10.2016 04:56 10,3 C 96 % 1019,3 hPa 0,0 l/m 0,0 km/h (0 Bft) S 188 0 min 0,000 mm 0,0 UV-I 0 W/m 9,7 C 10,3 C 0,0 km/h (0 Bft) 97,87 %
16.10.2016 04:58 10,3 C 96 % 1019,3 hPa 0,0 l/m 0,0 km/h (0 Bft) S 188 0 min 0,000 mm 0,0 UV-I 0 W/m 9,7 C 10,3 C 0,0 km/h (0 Bft) 97,87 %
16.10.2016 05:00 10,3 C 97 % 1019,3 hPa 0,0 l/m 0,0 km/h (0 Bft) S 188 0 min 0,000 mm 0,0 UV-I 0 W/m 9,8 C 10,3 C 0,0 km/h (0 Bft) 100,00 %
16.10.2016 05:02 10,3 C 97 % 1019,3 hPa 0,0 l/m 0,0 km/h (0 Bft) S 188 0 min 0,000 mm 0,0 UV-I 0 W/m 9,8 C 10,3 C 0,0 km/h (0 Bft) 98,00 %
16.10.2016 05:04 10,3 C 97 % 1019,4 hPa 0,0 l/m 1,0 km/h (0 Bft) S 188 0 min 0,000 mm 0,0 UV-I 0 W/m 9,8 C 10,3 C 1,6 km/h (1 Bft) 100,00 %
16.10.2016 05:06 10,3 C 97 % 1019,4 hPa 0,0 l/m 2,1 km/h (1 Bft) S 188 0 min 0,000 mm 0,0 UV-I 0 W/m 9,8 C 10,3 C 3,2 km/h (1 Bft) 100,00 %
16.10.2016 05:08 10,3 C 96 % 1019,4 hPa 0,0 l/m 2,2 km/h (1 Bft) S 188 0 min 0,000 mm 0,0 UV-I 0 W/m 9,7 C 10,3 C 3,2 km/h (1 Bft) 100,00 %
16.10.2016 05:10 10,2 C 96 % 1019,4 hPa 0,0 l/m 1,9 km/h (1 Bft) S 188 0 min 0,000 mm 0,0 UV-I 0 W/m 9,6 C 10,2 C 3,2 km/h (1 Bft) 97,92 %
16.10.2016 05:12 10,2 C 96 % 1019,4 hPa 0,0 l/m 1,6 km/h (1 Bft) S 188 0 min 0,000 mm 0,0 UV-I 0 W/m 9,6 C 10,2 C 3,2 km/h (1 Bft) 100,00 %
16.10.2016 05:14 10,2 C 97 % 1019,4 hPa 0,0 l/m 1,2 km/h (1 Bft) S 188 0 min 0,000 mm 0,0 UV-I 0 W/m 9,7 C 10,2 C 3,2 km/h (1 Bft) 100,00 %
16.10.2016 05:16 10,1 C 96 % 1019,4 hPa 0,0 l/m 0,5 km/h (0 Bft) S 188 0 min 0,000 mm 0,0 UV-I 0 W/m 9,5 C 10,1 C 1,6 km/h (1 Bft) 98,00 %
16.10.2016 05:18 9,9 C 96 % 1019,4 hPa 0,0 l/m 0,8 km/h (0 Bft) S 188 0 min 0,000 mm 0,0 UV-I 0 W/m 9,3 C 9,9 C 3,2 km/h (1 Bft) 100,00 %
16.10.2016 05:20 9,9 C 97 % 1019,5 hPa 0,0 l/m 1,2 km/h (1 Bft) S 188 0 min 0,000 mm 0,0 UV-I 0 W/m 9,4 C 9,9 C 3,2 km/h (1 Bft) 97,87 %
16.10.2016 05:22 10,1 C 97 % 1019,5 hPa 0,0 l/m 0,5 km/h (0 Bft) S 188 0 min 0,000 mm 0,0 UV-I 0 W/m 9,6 C 10,1 C 1,6 km/h (1 Bft) 100,00 %
16.10.2016 05:24 10,1 C 97 % 1019,5 hPa 0,0 l/m 1,2 km/h (1 Bft) S 188 0 min 0,000 mm 0,0 UV-I 0 W/m 9,6 C 10,1 C 3,2 km/h (1 Bft) 100,00 %
16.10.2016 05:26 10,2 C 97 % 1019,5 hPa 0,0 l/m 1,4 km/h (1 Bft) S 188 0 min 0,000 mm 0,0 UV-I 0 W/m 9,7 C 10,2 C 3,2 km/h (1 Bft) 100,00 %
16.10.2016 05:28 10,2 C 97 % 1019,4 hPa 0,0 l/m 2,5 km/h (1 Bft) S 188 0 min 0,000 mm 0,0 UV-I 0 W/m 9,7 C 10,2 C 4,8 km/h (1 Bft) 97,56 %
16.10.2016 05:30 10,2 C 97 % 1019,4 hPa 0,0 l/m 2,3 km/h (1 Bft) S 188 0 min 0,000 mm 0,0 UV-I 0 W/m 9,7 C 10,2 C 4,8 km/h (1 Bft) 100,00 %
16.10.2016 05:32 10,2 C 97 % 1019,4 hPa 0,0 l/m 2,5 km/h (1 Bft) S 188 0 min 0,000 mm 0,0 UV-I 0 W/m 9,7 C 10,2 C 4,8 km/h (1 Bft) 98,11 %
16.10.2016 05:34 10,2 C 97 % 1019,4 hPa 0,0 l/m 3,4 km/h (1 Bft) S 188 0 min 0,000 mm 0,0 UV-I 0 W/m 9,7 C 10,2 C 4,8 km/h (1 Bft) 100,00 %
16.10.2016 05:36 10,2 C 97 % 1019,4 hPa 0,0 l/m 2,4 km/h (1 Bft) S 188 0 min 0,000 mm 0,0 UV-I 0 W/m 9,7 C 10,2 C 3,2 km/h (1 Bft) 100,00 %
16.10.2016 05:38 10,1 C 97 % 1019,5 hPa 0,0 l/m 0,6 km/h (0 Bft) S 188 0 min 0,000 mm 0,0 UV-I 0 W/m 9,6 C 10,1 C 1,6 km/h (1 Bft) 100,00 %
16.10.2016 05:40 10,2 C 97 % 1019,5 hPa 0,0 l/m 0,0 km/h (0 Bft) S 188 0 min 0,000 mm 0,0 UV-I 0 W/m 9,7 C 10,2 C 0,0 km/h (0 Bft) 100,00 %
16.10.2016 05:42 10,1 C 97 % 1019,6 hPa 0,0 l/m 0,5 km/h (0 Bft) S 188 0 min 0,000 mm 0,0 UV-I 0 W/m 9,6 C 10,1 C 3,2 km/h (1 Bft) 100,00 %
16.10.2016 05:44 10,0 C 96 % 1019,6 hPa 0,0 l/m 2,6 km/h (1 Bft) S 188 0 min 0,000 mm 0,0 UV-I 0 W/m 9,4 C 10,0 C 3,2 km/h (1 Bft) 100,00 %
16.10.2016 05:46 9,9 C 96 % 1019,7 hPa 0,0 l/m 3,4 km/h (1 Bft) S 188 0 min 0,000 mm 0,0 UV-I 0 W/m 9,3 C 9,9 C 4,8 km/h (1 Bft) 98,44 %
16.10.2016 05:48 9,8 C 96 % 1019,7 hPa 0,0 l/m 3,4 km/h (1 Bft) S 188 0 min 0,000 mm 0,0 UV-I 0 W/m 9,2 C 9,8 C 4,8 km/h (1 Bft) 100,00 %
16.10.2016 05:50 9,8 C 97 % 1019,8 hPa 0,0 l/m 3,1 km/h (1 Bft) S 188 0 min 0,000 mm 0,0 UV-I 0 W/m 9,3 C 9,8 C 4,8 km/h (1 Bft) 97,87 %
16.10.2016 05:52 9,7 C 97 % 1019,8 hPa 0,0 l/m 2,2 km/h (1 Bft) S 188 0 min 0,000 mm 0,0 UV-I 0 W/m 9,2 C 9,7 C 4,8 km/h (1 Bft) 100,00 %
16.10.2016 05:54 9,6 C 96 % 1019,8 hPa 0,0 l/m 1,8 km/h (1 Bft) S 188 0 min 0,000 mm 0,0 UV-I 0 W/m 9,0 C 9,6 C 3,2 km/h (1 Bft) 100,00 %
16.10.2016 05:56 9,6 C 96 % 1019,8 hPa 0,0 l/m 3,0 km/h (1 Bft) S 188 0 min 0,000 mm 0,0 UV-I 0 W/m 9,0 C 9,6 C 3,2 km/h (1 Bft) 98,00 %
16.10.2016 05:58 9,6 C 97 % 1019,7 hPa 0,0 l/m 1,7 km/h (1 Bft) S 188 0 min 0,000 mm 0,0 UV-I 0 W/m 9,1 C 9,6 C 3,2 km/h (1 Bft) 98,00 %
16.10.2016 06:00 9,7 C 97 % 1019,8 hPa 0,0 l/m 2,4 km/h (1 Bft) S 188 0 min 0,000 mm 0,0 UV-I 0 W/m 9,2 C 9,7 C 3,2 km/h (1 Bft) 100,00 %
16.10.2016 06:02 9,7 C 97 % 1019,7 hPa 0,0 l/m 2,1 km/h (1 Bft) S 188 0 min 0,000 mm 0,0 UV-I 0 W/m 9,2 C 9,7 C 3,2 km/h (1 Bft) 100,00 %
16.10.2016 06:04 9,7 C 97 % 1019,8 hPa 0,0 l/m 1,2 km/h (1 Bft) S 188 0 min 0,000 mm 0,0 UV-I 0 W/m 9,2 C 9,7 C 3,2 km/h (1 Bft) 97,37 %
16.10.2016 06:06 9,6 C 97 % 1019,7 hPa 0,0 l/m 0,3 km/h (0 Bft) S 188 0 min 0,000 mm 0,0 UV-I 0 W/m 9,1 C 9,6 C 1,6 km/h (1 Bft) 98,00 %
16.10.2016 06:08 9,6 C 97 % 1019,8 hPa 0,0 l/m 0,0 km/h (0 Bft) S 188 0 min 0,000 mm 0,0 UV-I 0 W/m 9,1 C 9,6 C 0,0 km/h (0 Bft) 97,87 %
16.10.2016 06:10 9,6 C 97 % 1019,7 hPa 0,0 l/m 0,0 km/h (0 Bft) S 188 0 min 0,000 mm 0,0 UV-I 0 W/m 9,1 C 9,6 C 0,0 km/h (0 Bft) 95,74 %
16.10.2016 06:12 9,7 C 97 % 1019,8 hPa 0,0 l/m 0,0 km/h (0 Bft) S 188 0 min 0,000 mm 0,0 UV-I 0 W/m 9,2 C 9,7 C 1,6 km/h (1 Bft) 97,87 %
16.10.2016 06:14 9,7 C 97 % 1019,8 hPa 0,0 l/m 0,0 km/h (0 Bft) S 188 0 min 0,000 mm 0,0 UV-I 0 W/m 9,2 C 9,7 C 0,0 km/h (0 Bft) 93,62 %
16.10.2016 06:16 9,7 C 97 % 1019,8 hPa 0,0 l/m 0,0 km/h (0 Bft) S 188 0 min 0,000 mm 0,0 UV-I 0 W/m 9,2 C 9,7 C 0,0 km/h (0 Bft) 95,74 %
16.10.2016 06:18 9,8 C 97 % 1019,8 hPa 0,0 l/m 0,0 km/h (0 Bft) S 188 0 min 0,000 mm 0,0 UV-I 0 W/m 9,3 C 9,8 C 0,0 km/h (0 Bft) 96,00 %
16.10.2016 06:20 9,8 C 97 % 1019,8 hPa 0,0 l/m 0,0 km/h (0 Bft) S 188 0 min 0,000 mm 0,0 UV-I 0 W/m 9,3 C 9,8 C 0,0 km/h (0 Bft) 95,74 %
16.10.2016 06:22 9,8 C 97 % 1019,9 hPa 0,0 l/m 0,1 km/h (0 Bft) S 188 0 min 0,000 mm 0,0 UV-I 0 W/m 9,3 C 9,8 C 1,6 km/h (1 Bft) 95,74 %
16.10.2016 06:24 9,8 C 97 % 1019,9 hPa 0,0 l/m 0,9 km/h (0 Bft) S 188 0 min 0,000 mm 0,0 UV-I 0 W/m 9,3 C 9,8 C 1,6 km/h (1 Bft) 97,87 %
16.10.2016 06:26 9,8 C 97 % 1019,9 hPa 0,0 l/m 1,5 km/h (1 Bft) S 188 0 min 0,000 mm 0,0 UV-I 0 W/m 9,3 C 9,8 C 1,6 km/h (1 Bft) 97,87 %
16.10.2016 06:28 9,7 C 97 % 1019,9 hPa 0,0 l/m 0,7 km/h (0 Bft) S 188 0 min 0,000 mm 0,0 UV-I 0 W/m 9,2 C 9,7 C 3,2 km/h (1 Bft) 97,87 %
16.10.2016 06:30 9,6 C 97 % 1019,9 hPa 0,0 l/m 0,2 km/h (0 Bft) S 188 0 min 0,000 mm 0,0 UV-I 0 W/m 9,1 C 9,6 C 1,6 km/h (1 Bft) 94,87 %
16.10.2016 06:32 9,4 C 96 % 1019,9 hPa 0,0 l/m 1,7 km/h (1 Bft) S 188 0 min 0,000 mm 0,0 UV-I 0 W/m 8,8 C 9,4 C 3,2 km/h (1 Bft) 98,00 %
16.10.2016 06:34 9,4 C 97 % 1019,8 hPa 0,0 l/m 2,2 km/h (1 Bft) S 188 0 min 0,000 mm 0,0 UV-I 0 W/m 8,9 C 9,4 C 4,8 km/h (1 Bft) 97,87 %
16.10.2016 06:36 9,6 C 97 % 1019,8 hPa 0,0 l/m 3,8 km/h (1 Bft) S 188 0 min 0,000 mm 0,0 UV-I 0 W/m 9,1 C 9,6 C 4,8 km/h (1 Bft) 93,62 %
16.10.2016 06:38 9,7 C 97 % 1019,9 hPa 0,0 l/m 1,7 km/h (1 Bft) S 188 0 min 0,000 mm 0,0 UV-I 0 W/m 9,2 C 9,7 C 3,2 km/h (1 Bft) 98,00 %
16.10.2016 06:40 9,7 C 97 % 1019,9 hPa 0,0 l/m 1,4 km/h (1 Bft) S 188 0 min 0,000 mm 0,0 UV-I 0 W/m 9,2 C 9,7 C 3,2 km/h (1 Bft) 100,00 %
16.10.2016 06:42 9,7 C 97 % 1020,0 hPa 0,0 l/m 2,6 km/h (1 Bft) S 188 0 min 0,000 mm 0,0 UV-I 0 W/m 9,2 C 9,7 C 4,8 km/h (1 Bft) 100,00 %
16.10.2016 06:44 9,8 C 97 % 1020,0 hPa 0,0 l/m 2,2 km/h (1 Bft) S 188 0 min 0,000 mm 0,0 UV-I 0 W/m 9,3 C 9,8 C 3,2 km/h (1 Bft) 100,00 %
16.10.2016 06:46 9,7 C 97 % 1020,0 hPa 0,0 l/m 0,6 km/h (0 Bft) S 188 0 min 0,000 mm 0,0 UV-I 0 W/m 9,2 C 9,7 C 1,6 km/h (1 Bft) 98,00 %
16.10.2016 06:48 9,6 C 97 % 1020,0 hPa 0,0 l/m 0,7 km/h (0 Bft) S 188 0 min 0,000 mm 0,0 UV-I 0 W/m 9,1 C 9,6 C 1,6 km/h (1 Bft) 98,00 %
16.10.2016 06:50 9,3 C 97 % 1020,0 hPa 0,0 l/m 1,2 km/h (1 Bft) S 188 0 min 0,000 mm 0,0 UV-I 0 W/m 8,8 C 9,3 C 1,6 km/h (1 Bft) 100,00 %
16.10.2016 06:52 9,2 C 96 % 1020,0 hPa 0,0 l/m 1,0 km/h (0 Bft) S 188 0 min 0,000 mm 0,0 UV-I 0 W/m 8,6 C 9,2 C 3,2 km/h (1 Bft) 100,00 %
16.10.2016 06:54 9,1 C 97 % 1020,0 hPa 0,0 l/m 0,1 km/h (0 Bft) S 188 0 min 0,000 mm 0,0 UV-I 0 W/m 8,6 C 9,1 C 1,6 km/h (1 Bft) 100,00 %
16.10.2016 06:56 9,1 C 97 % 1020,0 hPa 0,0 l/m 0,0 km/h (0 Bft) S 188 0 min 0,000 mm 0,0 UV-I 0 W/m 8,6 C 9,1 C 0,0 km/h (0 Bft) 100,00 %
16.10.2016 06:58 9,1 C 97 % 1020,0 hPa 0,0 l/m 0,0 km/h (0 Bft) S 188 0 min 0,000 mm 0,0 UV-I 0 W/m 8,6 C 9,1 C 0,0 km/h (0 Bft) 100,00 %
16.10.2016 07:00 9,1 C 97 % 1020,1 hPa 0,0 l/m 0,0 km/h (0 Bft) S 188 0 min 0,000 mm 0,0 UV-I 0 W/m 8,6 C 9,1 C 0,0 km/h (0 Bft) 100,00 %
16.10.2016 07:02 9,0 C 97 % 1020,1 hPa 0,0 l/m 0,0 km/h (0 Bft) S 188 0 min 0,000 mm 0,0 UV-I 0 W/m 8,5 C 9,0 C 0,0 km/h (0 Bft) 98,00 %
16.10.2016 07:04 9,0 C 97 % 1020,1 hPa 0,0 l/m 0,0 km/h (0 Bft) S 188 0 min 0,000 mm 0,0 UV-I 0 W/m 8,5 C 9,0 C 0,0 km/h (0 Bft) 100,00 %
16.10.2016 07:06 9,1 C 97 % 1020,2 hPa 0,0 l/m 0,0 km/h (0 Bft) S 188 0 min 0,000 mm 0,0 UV-I 0 W/m 8,6 C 9,1 C 0,0 km/h (0 Bft) 95,74 %
16.10.2016 07:08 9,1 C 97 % 1020,2 hPa 0,0 l/m 0,0 km/h (0 Bft) S 188 0 min 0,000 mm 0,0 UV-I 0 W/m 8,6 C 9,1 C 0,0 km/h (0 Bft) 100,00 %
16.10.2016 07:10 9,2 C 97 % 1020,1 hPa 0,0 l/m 0,0 km/h (0 Bft) S 188 0 min 0,000 mm 0,0 UV-I 0 W/m 8,7 C 9,2 C 1,6 km/h (1 Bft) 100,00 %
16.10.2016 07:12 9,2 C 97 % 1020,1 hPa 0,0 l/m 0,6 km/h (0 Bft) S 188 0 min 0,000 mm 0,0 UV-I 0 W/m 8,7 C 9,2 C 1,6 km/h (1 Bft) 100,00 %
16.10.2016 07:14 9,2 C 97 % 1020,2 hPa 0,0 l/m 1,9 km/h (1 Bft) S 188 0 min 0,000 mm 0,0 UV-I 0 W/m 8,7 C 9,2 C 3,2 km/h (1 Bft) 100,00 %
16.10.2016 07:16 9,2 C 97 % 1020,2 hPa 0,0 l/m 1,4 km/h (1 Bft) S 188 0 min 0,000 mm 0,0 UV-I 0 W/m 8,7 C 9,2 C 1,6 km/h (1 Bft) 100,00 %
16.10.2016 07:18 9,3 C 97 % 1020,2 hPa 0,0 l/m 1,8 km/h (1 Bft) S 188 0 min 0,000 mm 0,0 UV-I 0 W/m 8,8 C 9,3 C 3,2 km/h (1 Bft) 100,00 %
16.10.2016 07:20 9,4 C 97 % 1020,2 hPa 0,0 l/m 2,3 km/h (1 Bft) S 188 0 min 0,000 mm 0,0 UV-I 0 W/m 8,9 C 9,4 C 3,2 km/h (1 Bft) 100,00 %
16.10.2016 07:22 9,4 C 97 % 1020,2 hPa 0,0 l/m 1,7 km/h (1 Bft) S 188 0 min 0,000 mm 0,0 UV-I 0 W/m 8,9 C 9,4 C 3,2 km/h (1 Bft) 100,00 %
16.10.2016 07:24 9,6 C 98 % 1020,2 hPa 0,0 l/m 3,0 km/h (1 Bft) S 188 0 min 0,000 mm 0,0 UV-I 0 W/m 9,3 C 9,6 C 4,8 km/h (1 Bft) 100,00 %
16.10.2016 07:26 9,7 C 98 % 1020,3 hPa 0,0 l/m 3,1 km/h (1 Bft) S 188 0 min 0,000 mm 0,0 UV-I 0 W/m 9,4 C 9,7 C 4,8 km/h (1 Bft) 100,00 %
16.10.2016 07:28 9,7 C 97 % 1020,3 hPa 0,0 l/m 2,0 km/h (1 Bft) S 188 0 min 0,000 mm 0,0 UV-I 0 W/m 9,2 C 9,7 C 3,2 km/h (1 Bft) 100,00 %
16.10.2016 07:30 9,7 C 97 % 1020,3 hPa 0,0 l/m 3,0 km/h (1 Bft) S 188 0 min 0,000 mm 0,0 UV-I 0 W/m 9,2 C 9,7 C 4,8 km/h (1 Bft) 97,87 %
16.10.2016 07:32 9,7 C 97 % 1020,3 hPa 0,0 l/m 3,4 km/h (1 Bft) S 188 0 min 0,000 mm 0,0 UV-I 3 W/m 9,2 C 9,7 C 4,8 km/h (1 Bft) 100,00 %
16.10.2016 07:34 9,7 C 97 % 1020,3 hPa 0,0 l/m 2,5 km/h (1 Bft) S 188 0 min 0,000 mm 0,0 UV-I 5 W/m 9,2 C 9,7 C 3,2 km/h (1 Bft) 100,00 %
16.10.2016 07:36 9,7 C 97 % 1020,3 hPa 0,0 l/m 2,0 km/h (1 Bft) S 188 0 min 0,000 mm 0,0 UV-I 5 W/m 9,2 C 9,7 C 3,2 km/h (1 Bft) 97,92 %
16.10.2016 07:38 9,8 C 97 % 1020,3 hPa 0,0 l/m 0,9 km/h (0 Bft) S 188 0 min 0,000 mm 0,0 UV-I 6 W/m 9,3 C 9,8 C 3,2 km/h (1 Bft) 100,00 %
16.10.2016 07:40 9,8 C 97 % 1020,4 hPa 0,0 l/m 0,3 km/h (0 Bft) S 188 0 min 0,000 mm 0,0 UV-I 7 W/m 9,3 C 9,8 C 1,6 km/h (1 Bft) 98,21 %
16.10.2016 07:42 9,9 C 98 % 1020,4 hPa 0,0 l/m 0,1 km/h (0 Bft) S 188 0 min 0,000 mm 0,0 UV-I 8 W/m 9,6 C 9,9 C 1,6 km/h (1 Bft) 100,00 %
16.10.2016 07:44 9,9 C 97 % 1020,4 hPa 0,0 l/m 0,0 km/h (0 Bft) S 188 0 min 0,000 mm 0,0 UV-I 10 W/m 9,4 C 9,9 C 1,6 km/h (1 Bft) 100,00 %
16.10.2016 07:46 9,9 C 97 % 1020,3 hPa 0,0 l/m 0,5 km/h (0 Bft) S 188 0 min 0,000 mm 0,0 UV-I 11 W/m 9,4 C 9,9 C 1,6 km/h (1 Bft) 100,00 %
16.10.2016 07:48 9,9 C 97 % 1020,3 hPa 0,0 l/m 0,8 km/h (0 Bft) S 188 0 min 0,000 mm 0,0 UV-I 11 W/m 9,4 C 9,9 C 1,6 km/h (1 Bft) 100,00 %
16.10.2016 07:50 9,9 C 97 % 1020,4 hPa 0,0 l/m 1,4 km/h (1 Bft) S 188 0 min 0,000 mm 0,0 UV-I 11 W/m 9,4 C 9,9 C 3,2 km/h (1 Bft) 100,00 %
16.10.2016 07:52 9,9 C 97 % 1020,4 hPa 0,0 l/m 1,0 km/h (0 Bft) S 188 0 min 0,000 mm 0,0 UV-I 12 W/m 9,4 C 9,9 C 1,6 km/h (1 Bft) 100,00 %
16.10.2016 07:54 9,9 C 97 % 1020,4 hPa 0,0 l/m 1,1 km/h (1 Bft) S 188 0 min 0,000 mm 0,0 UV-I 12 W/m 9,4 C 9,9 C 1,6 km/h (1 Bft) 100,00 %
16.10.2016 07:56 9,8 C 97 % 1020,4 hPa 0,0 l/m 0,2 km/h (0 Bft) S 188 0 min 0,000 mm 0,0 UV-I 13 W/m 9,3 C 9,8 C 1,6 km/h (1 Bft) 100,00 %
16.10.2016 07:58 9,7 C 97 % 1020,4 hPa 0,0 l/m 0,0 km/h (0 Bft) S 188 0 min 0,000 mm 0,0 UV-I 15 W/m 9,2 C 9,7 C 0,0 km/h (0 Bft) 100,00 %
16.10.2016 08:00 9,6 C 97 % 1020,5 hPa 0,0 l/m 0,5 km/h (0 Bft) S 188 0 min 0,000 mm 0,0 UV-I 17 W/m 9,1 C 9,6 C 1,6 km/h (1 Bft) 100,00 %
16.10.2016 08:02 9,6 C 97 % 1020,5 hPa 0,0 l/m 0,0 km/h (0 Bft) S 188 0 min 0,000 mm 0,0 UV-I 18 W/m 9,1 C 9,6 C 1,6 km/h (1 Bft) 100,00 %
16.10.2016 08:04 9,6 C 97 % 1020,5 hPa 0,0 l/m 0,5 km/h (0 Bft) S 188 0 min 0,000 mm 0,0 UV-I 19 W/m 9,1 C 9,6 C 1,6 km/h (1 Bft) 98,00 %
16.10.2016 08:06 9,6 C 97 % 1020,6 hPa 0,0 l/m 0,0 km/h (0 Bft) S 188 0 min 0,000 mm 0,0 UV-I 21 W/m 9,1 C 9,6 C 0,0 km/h (0 Bft) 100,00 %
16.10.2016 08:08 9,7 C 97 % 1020,6 hPa 0,0 l/m 0,1 km/h (0 Bft) S 188 0 min 0,000 mm 0,0 UV-I 21 W/m 9,2 C 9,7 C 1,6 km/h (1 Bft) 95,74 %
16.10.2016 08:10 9,7 C 97 % 1020,6 hPa 0,0 l/m 2,0 km/h (1 Bft) S 188 0 min 0,000 mm 0,0 UV-I 19 W/m 9,2 C 9,7 C 3,2 km/h (1 Bft) 96,00 %
16.10.2016 08:12 9,8 C 97 % 1020,6 hPa 0,0 l/m 1,6 km/h (1 Bft) S 188 0 min 0,000 mm 0,0 UV-I 18 W/m 9,3 C 9,8 C 3,2 km/h (1 Bft) 97,87 %
16.10.2016 08:14 9,8 C 97 % 1020,7 hPa 0,0 l/m 0,1 km/h (0 Bft) S 188 0 min 0,000 mm 0,0 UV-I 18 W/m 9,3 C 9,8 C 1,6 km/h (1 Bft) 95,12 %
16.10.2016 08:16 9,8 C 97 % 1020,7 hPa 0,0 l/m 0,5 km/h (0 Bft) S 188 0 min 0,000 mm 0,0 UV-I 18 W/m 9,3 C 9,8 C 1,6 km/h (1 Bft) 96,43 %
16.10.2016 08:18 9,9 C 97 % 1020,7 hPa 0,0 l/m 1,5 km/h (1 Bft) S 188 0 min 0,000 mm 0,0 UV-I 20 W/m 9,4 C 9,9 C 3,2 km/h (1 Bft) 96,00 %
16.10.2016 08:20 9,9 C 97 % 1020,7 hPa 0,0 l/m 0,6 km/h (0 Bft) S 188 0 min 0,000 mm 0,0 UV-I 22 W/m 9,4 C 9,9 C 3,2 km/h (1 Bft) 97,37 %
16.10.2016 08:22 10,0 C 97 % 1020,8 hPa 0,0 l/m 0,2 km/h (0 Bft) S 188 0 min 0,000 mm 0,0 UV-I 25 W/m 9,5 C 10,0 C 1,6 km/h (1 Bft) 95,74 %
16.10.2016 08:24 10,1 C 97 % 1020,8 hPa 0,0 l/m 0,7 km/h (0 Bft) S 188 0 min 0,000 mm 0,0 UV-I 28 W/m 9,6 C 10,1 C 1,6 km/h (1 Bft) 98,11 %
16.10.2016 08:26 10,2 C 97 % 1020,8 hPa 0,0 l/m 1,0 km/h (0 Bft) S 188 0 min 0,000 mm 0,0 UV-I 31 W/m 9,7 C 10,2 C 1,6 km/h (1 Bft) 95,12 %
16.10.2016 08:28 10,2 C 97 % 1020,9 hPa 0,0 l/m 1,0 km/h (0 Bft) S 188 0 min 0,000 mm 0,0 UV-I 33 W/m 9,7 C 10,2 C 1,6 km/h (1 Bft) 96,23 %
16.10.2016 08:30 10,2 C 97 % 1020,9 hPa 0,0 l/m 1,3 km/h (1 Bft) S 188 0 min 0,000 mm 0,0 UV-I 35 W/m 9,7 C 10,2 C 1,6 km/h (1 Bft) 94,87 %
16.10.2016 08:32 10,3 C 97 % 1020,9 hPa 0,0 l/m 0,9 km/h (0 Bft) S 188 0 min 0,000 mm 0,0 UV-I 37 W/m 9,8 C 10,3 C 1,6 km/h (1 Bft) 98,00 %
16.10.2016 08:34 10,3 C 97 % 1020,9 hPa 0,0 l/m 0,0 km/h (0 Bft) S 188 0 min 0,000 mm 0,0 UV-I 39 W/m 9,8 C 10,3 C 1,6 km/h (1 Bft) 96,00 %
16.10.2016 08:36 10,4 C 97 % 1021,0 hPa 0,0 l/m 0,0 km/h (0 Bft) S 188 0 min 0,000 mm 0,0 UV-I 44 W/m 9,9 C 10,4 C 0,0 km/h (0 Bft) 95,74 %
16.10.2016 08:38 10,4 C 97 % 1021,0 hPa 0,0 l/m 0,7 km/h (0 Bft) S 188 0 min 0,000 mm 0,0 UV-I 48 W/m 9,9 C 10,4 C 3,2 km/h (1 Bft) 97,87 %
16.10.2016 08:40 10,4 C 97 % 1021,0 hPa 0,0 l/m 0,3 km/h (0 Bft) S 188 0 min 0,000 mm 0,0 UV-I 51 W/m 9,9 C 10,4 C 1,6 km/h (1 Bft) 98,00 %
16.10.2016 08:42 10,4 C 97 % 1021,1 hPa 0,0 l/m 0,0 km/h (0 Bft) S 188 0 min 0,000 mm 0,0 UV-I 53 W/m 9,9 C 10,4 C 0,0 km/h (0 Bft) 97,37 %
16.10.2016 08:44 10,4 C 97 % 1021,1 hPa 0,0 l/m 0,0 km/h (0 Bft) S 188 0 min 0,000 mm 0,0 UV-I 56 W/m 9,9 C 10,4 C 0,0 km/h (0 Bft) 95,74 %
16.10.2016 08:46 10,4 C 97 % 1021,1 hPa 0,0 l/m 0,0 km/h (0 Bft) S 188 0 min 0,000 mm 0,0 UV-I 58 W/m 9,9 C 10,4 C 0,0 km/h (0 Bft) 100,00 %
16.10.2016 08:48 10,6 C 97 % 1021,1 hPa 0,0 l/m 0,2 km/h (0 Bft) S 188 0 min 0,000 mm 0,0 UV-I 58 W/m 10,1 C 10,6 C 1,6 km/h (1 Bft) 95,74 %
16.10.2016 08:50 10,6 C 97 % 1021,1 hPa 0,0 l/m 1,4 km/h (1 Bft) S 188 0 min 0,000 mm 0,0 UV-I 57 W/m 10,1 C 10,6 C 1,6 km/h (1 Bft) 100,00 %
16.10.2016 08:52 10,7 C 97 % 1021,1 hPa 0,0 l/m 2,0 km/h (1 Bft) S 188 0 min 0,000 mm 0,0 UV-I 58 W/m 10,2 C 10,7 C 3,2 km/h (1 Bft) 100,00 %
16.10.2016 08:54 10,7 C 97 % 1021,1 hPa 0,0 l/m 2,3 km/h (1 Bft) S 188 0 min 0,000 mm 0,0 UV-I 58 W/m 10,2 C 10,7 C 3,2 km/h (1 Bft) 98,00 %
16.10.2016 08:56 10,7 C 97 % 1021,1 hPa 0,0 l/m 3,3 km/h (1 Bft) S 188 0 min 0,000 mm 0,0 UV-I 57 W/m 10,2 C 10,7 C 4,8 km/h (1 Bft) 100,00 %
16.10.2016 08:58 10,7 C 97 % 1021,1 hPa 0,0 l/m 3,6 km/h (1 Bft) S 186 0 min 0,000 mm 0,0 UV-I 54 W/m 10,2 C 10,7 C 4,8 km/h (1 Bft) 100,00 %
16.10.2016 09:00 10,6 C 97 % 1021,1 hPa 0,0 l/m 4,0 km/h (1 Bft) S 171 0 min 0,025 mm 0,0 UV-I 51 W/m 10,1 C 10,6 C 6,4 km/h (2 Bft) 100,00 %
16.10.2016 09:02 10,6 C 97 % 1021,2 hPa 0,0 l/m 3,5 km/h (1 Bft) S 171 0 min 0,000 mm 0,0 UV-I 47 W/m 10,1 C 10,6 C 6,4 km/h (2 Bft) 100,00 %
16.10.2016 09:04 10,6 C 97 % 1021,1 hPa 0,0 l/m 3,6 km/h (1 Bft) S 171 0 min 0,000 mm 0,0 UV-I 44 W/m 10,1 C 10,6 C 6,4 km/h (2 Bft) 100,00 %
16.10.2016 09:06 10,5 C 97 % 1021,2 hPa 0,0 l/m 3,8 km/h (1 Bft) S 171 0 min 0,000 mm 0,0 UV-I 44 W/m 10,0 C 10,5 C 6,4 km/h (2 Bft) 100,00 %
16.10.2016 09:08 10,5 C 97 % 1021,2 hPa 0,0 l/m 2,3 km/h (1 Bft) S 171 0 min 0,000 mm 0,0 UV-I 48 W/m 10,0 C 10,5 C 3,2 km/h (1 Bft) 100,00 %
16.10.2016 09:10 10,5 C 97 % 1021,2 hPa 0,0 l/m 1,1 km/h (1 Bft) S 171 0 min 0,000 mm 0,0 UV-I 56 W/m 10,0 C 10,5 C 3,2 km/h (1 Bft) 100,00 %
16.10.2016 09:12 10,5 C 97 % 1021,2 hPa 0,0 l/m 0,4 km/h (0 Bft) S 171 0 min 0,000 mm 0,0 UV-I 62 W/m 10,0 C 10,5 C 1,6 km/h (1 Bft) 100,00 %
16.10.2016 09:14 10,6 C 96 % 1021,2 hPa 0,0 l/m 0,0 km/h (0 Bft) S 171 0 min 0,000 mm 0,0 UV-I 68 W/m 10,0 C 10,6 C 0,0 km/h (0 Bft) 100,00 %
16.10.2016 09:16 10,6 C 96 % 1021,3 hPa 0,0 l/m 0,0 km/h (0 Bft) S 171 0 min 0,000 mm 0,0 UV-I 76 W/m 10,0 C 10,6 C 0,0 km/h (0 Bft) 100,00 %
16.10.2016 09:18 10,6 C 96 % 1021,3 hPa 0,0 l/m 0,0 km/h (0 Bft) S 171 0 min 0,000 mm 0,0 UV-I 102 W/m 10,0 C 10,6 C 0,0 km/h (0 Bft) 97,87 %
16.10.2016 09:20 10,6 C 96 % 1021,3 hPa 0,0 l/m 0,4 km/h (0 Bft) S 171 2 min 0,000 mm 0,0 UV-I 193 W/m 10,0 C 10,6 C 1,6 km/h (1 Bft) 100,00 %
16.10.2016 09:22 10,7 C 96 % 1021,3 hPa 0,0 l/m 0,1 km/h (0 Bft) S 171 2 min 0,000 mm 0,0 UV-I 254 W/m 10,1 C 10,7 C 1,6 km/h (1 Bft) 100,00 %
16.10.2016 09:24 10,8 C 97 % 1021,3 hPa 0,0 l/m 0,0 km/h (0 Bft) S 171 2 min 0,000 mm 0,0 UV-I 267 W/m 10,3 C 10,8 C 0,0 km/h (0 Bft) 100,00 %
16.10.2016 09:26 11,1 C 97 % 1021,3 hPa 0,0 l/m 0,0 km/h (0 Bft) S 171 2 min 0,000 mm 0,4 UV-I 276 W/m 10,6 C 11,1 C 0,0 km/h (0 Bft) 100,00 %
16.10.2016 09:28 11,2 C 97 % 1021,3 hPa 0,0 l/m 0,0 km/h (0 Bft) S 171 2 min 0,000 mm 0,5 UV-I 294 W/m 10,7 C 11,2 C 0,0 km/h (0 Bft) 95,12 %
16.10.2016 09:30 11,3 C 96 % 1021,3 hPa 0,0 l/m 0,0 km/h (0 Bft) S 171 2 min 0,000 mm 0,5 UV-I 292 W/m 10,7 C 11,3 C 0,0 km/h (0 Bft) 97,87 %
16.10.2016 09:32 11,5 C 96 % 1021,3 hPa 0,0 l/m 0,0 km/h (0 Bft) S 171 2 min 0,000 mm 0,5 UV-I 332 W/m 10,9 C 11,5 C 0,0 km/h (0 Bft) 100,00 %
16.10.2016 09:34 11,8 C 96 % 1021,3 hPa 0,0 l/m 0,0 km/h (0 Bft) S 171 2 min 0,000 mm 0,5 UV-I 342 W/m 11,2 C 11,8 C 0,0 km/h (0 Bft) 95,83 %
16.10.2016 09:36 12,1 C 94 % 1021,3 hPa 0,0 l/m 0,0 km/h (0 Bft) S 171 2 min 0,000 mm 0,5 UV-I 338 W/m 11,2 C 12,1 C 0,0 km/h (0 Bft) 100,00 %
16.10.2016 09:38 12,3 C 94 % 1021,3 hPa 0,0 l/m 0,1 km/h (0 Bft) S 171 2 min 0,000 mm 0,5 UV-I 290 W/m 11,4 C 12,3 C 1,6 km/h (1 Bft) 100,00 %
16.10.2016 09:40 12,4 C 94 % 1021,3 hPa 0,0 l/m 2,9 km/h (1 Bft) S 171 2 min 0,000 mm 0,5 UV-I 238 W/m 11,5 C 12,4 C 3,2 km/h (1 Bft) 97,87 %
16.10.2016 09:42 12,4 C 93 % 1021,3 hPa 0,0 l/m 1,0 km/h (0 Bft) S 171 0 min 0,000 mm 0,5 UV-I 171 W/m 11,3 C 12,4 C 3,2 km/h (1 Bft) 100,00 %
16.10.2016 09:44 12,4 C 92 % 1021,3 hPa 0,0 l/m 0,1 km/h (0 Bft) S 171 0 min 0,000 mm 0,5 UV-I 154 W/m 11,1 C 12,4 C 1,6 km/h (1 Bft) 98,00 %
16.10.2016 09:46 12,3 C 92 % 1021,3 hPa 0,0 l/m 0,1 km/h (0 Bft) S 171 0 min 0,000 mm 0,5 UV-I 144 W/m 11,0 C 12,3 C 1,6 km/h (1 Bft) 100,00 %
16.10.2016 09:48 12,3 C 92 % 1021,3 hPa 0,0 l/m 0,0 km/h (0 Bft) S 171 0 min 0,000 mm 0,5 UV-I 152 W/m 11,0 C 12,3 C 0,0 km/h (0 Bft) 100,00 %
16.10.2016 09:50 12,4 C 92 % 1021,3 hPa 0,0 l/m 0,3 km/h (0 Bft) S 171 0 min 0,000 mm 0,6 UV-I 173 W/m 11,1 C 12,4 C 1,6 km/h (1 Bft) 100,00 %
16.10.2016 09:52 12,5 C 92 % 1021,3 hPa 0,0 l/m 0,5 km/h (0 Bft) S 171 0 min 0,000 mm 0,6 UV-I 183 W/m 11,2 C 12,5 C 1,6 km/h (1 Bft) 100,00 %
16.10.2016 09:54 12,6 C 92 % 1021,3 hPa 0,0 l/m 0,5 km/h (0 Bft) S 171 0 min 0,000 mm 0,6 UV-I 178 W/m 11,3 C 12,6 C 1,6 km/h (1 Bft) 100,00 %
16.10.2016 09:56 12,6 C 91 % 1021,4 hPa 0,0 l/m 0,9 km/h (0 Bft) S 171 0 min 0,000 mm 0,6 UV-I 166 W/m 11,2 C 12,6 C 1,6 km/h (1 Bft) 100,00 %
16.10.2016 09:58 12,6 C 91 % 1021,3 hPa 0,0 l/m 0,1 km/h (0 Bft) S 171 0 min 0,000 mm 0,6 UV-I 180 W/m 11,2 C 12,6 C 1,6 km/h (1 Bft) 98,00 %
16.10.2016 10:00 12,6 C 91 % 1021,4 hPa 0,0 l/m 0,6 km/h (0 Bft) S 171 0 min 0,077 mm 0,7 UV-I 200 W/m 11,2 C 12,6 C 1,6 km/h (1 Bft) 95,74 %
16.10.2016 10:02 12,6 C 91 % 1021,4 hPa 0,0 l/m 0,2 km/h (0 Bft) S 171 0 min 0,000 mm 0,7 UV-I 185 W/m 11,2 C 12,6 C 1,6 km/h (1 Bft) 100,00 %
16.10.2016 10:04 12,7 C 91 % 1021,4 hPa 0,0 l/m 0,0 km/h (0 Bft) S 171 0 min 0,000 mm 0,7 UV-I 155 W/m 11,3 C 12,7 C 0,0 km/h (0 Bft) 95,74 %
16.10.2016 10:06 12,7 C 91 % 1021,4 hPa 0,0 l/m 0,6 km/h (0 Bft) S 171 0 min 0,000 mm 0,7 UV-I 175 W/m 11,3 C 12,7 C 3,2 km/h (1 Bft) 95,74 %
16.10.2016 10:08 12,7 C 91 % 1021,4 hPa 0,0 l/m 0,1 km/h (0 Bft) S 171 2 min 0,000 mm 0,8 UV-I 233 W/m 11,3 C 12,7 C 1,6 km/h (1 Bft) 96,00 %
16.10.2016 10:10 12,7 C 91 % 1021,4 hPa 0,0 l/m 0,0 km/h (0 Bft) S 171 2 min 0,000 mm 0,8 UV-I 339 W/m 11,3 C 12,7 C 1,6 km/h (1 Bft) 95,74 %
16.10.2016 10:12 12,8 C 90 % 1021,4 hPa 0,0 l/m 0,7 km/h (0 Bft) S 171 2 min 0,000 mm 0,9 UV-I 339 W/m 11,2 C 12,8 C 3,2 km/h (1 Bft) 97,37 %
16.10.2016 10:14 12,8 C 90 % 1021,3 hPa 0,0 l/m 1,0 km/h (0 Bft) S 171 2 min 0,000 mm 0,9 UV-I 305 W/m 11,2 C 12,8 C 3,2 km/h (1 Bft) 97,87 %
16.10.2016 10:16 12,9 C 90 % 1021,3 hPa 0,0 l/m 0,9 km/h (0 Bft) S 171 2 min 0,000 mm 0,9 UV-I 229 W/m 11,3 C 12,9 C 1,6 km/h (1 Bft) 98,00 %
16.10.2016 10:18 13,2 C 90 % 1021,4 hPa 0,0 l/m 0,0 km/h (0 Bft) S 171 2 min 0,000 mm 0,9 UV-I 350 W/m 11,6 C 13,2 C 1,6 km/h (1 Bft) 98,00 %
16.10.2016 10:20 13,2 C 90 % 1021,4 hPa 0,0 l/m 2,2 km/h (1 Bft) S 171 2 min 0,000 mm 1,0 UV-I 349 W/m 11,6 C 13,2 C 6,4 km/h (2 Bft) 97,56 %
16.10.2016 10:22 13,3 C 89 % 1021,4 hPa 0,0 l/m 1,2 km/h (1 Bft) S 171 2 min 0,000 mm 1,0 UV-I 357 W/m 11,5 C 13,3 C 3,2 km/h (1 Bft) 95,83 %
16.10.2016 10:24 13,3 C 89 % 1021,4 hPa 0,0 l/m 0,1 km/h (0 Bft) S 171 2 min 0,000 mm 1,0 UV-I 364 W/m 11,5 C 13,3 C 1,6 km/h (1 Bft) 97,87 %
16.10.2016 10:26 13,4 C 89 % 1021,4 hPa 0,0 l/m 0,0 km/h (0 Bft) S 171 2 min 0,000 mm 1,1 UV-I 367 W/m 11,6 C 13,4 C 1,6 km/h (1 Bft) 97,87 %
16.10.2016 10:28 13,6 C 88 % 1021,4 hPa 0,0 l/m 0,3 km/h (0 Bft) S 171 2 min 0,000 mm 1,1 UV-I 363 W/m 11,6 C 13,6 C 1,6 km/h (1 Bft) 98,00 %
16.10.2016 10:30 13,7 C 87 % 1021,4 hPa 0,0 l/m 0,3 km/h (0 Bft) S 171 2 min 0,000 mm 1,1 UV-I 362 W/m 11,6 C 13,7 C 1,6 km/h (1 Bft) 97,87 %
16.10.2016 10:32 13,6 C 87 % 1021,3 hPa 0,0 l/m 0,9 km/h (0 Bft) S 171 2 min 0,000 mm 1,1 UV-I 368 W/m 11,5 C 13,6 C 1,6 km/h (1 Bft) 98,11 %
16.10.2016 10:34 13,6 C 88 % 1021,3 hPa 0,0 l/m 0,4 km/h (0 Bft) S 171 2 min 0,000 mm 1,2 UV-I 374 W/m 11,6 C 13,6 C 1,6 km/h (1 Bft) 100,00 %
16.10.2016 10:36 13,7 C 88 % 1021,3 hPa 0,0 l/m 0,3 km/h (0 Bft) S 171 2 min 0,000 mm 1,2 UV-I 380 W/m 11,7 C 13,7 C 1,6 km/h (1 Bft) 98,00 %
16.10.2016 10:38 13,8 C 88 % 1021,3 hPa 0,0 l/m 0,0 km/h (0 Bft) S 171 2 min 0,000 mm 1,2 UV-I 382 W/m 11,8 C 13,8 C 0,0 km/h (0 Bft) 100,00 %
16.10.2016 10:40 14,1 C 88 % 1021,4 hPa 0,0 l/m 1,7 km/h (1 Bft) S-SW 194 2 min 0,000 mm 1,2 UV-I 380 W/m 12,1 C 14,1 C 4,8 km/h (1 Bft) 95,74 %
16.10.2016 10:42 14,2 C 87 % 1021,4 hPa 0,0 l/m 3,5 km/h (1 Bft) S-SW 194 2 min 0,000 mm 1,2 UV-I 384 W/m 12,1 C 14,2 C 4,8 km/h (1 Bft) 100,00 %
16.10.2016 10:44 14,1 C 86 % 1021,4 hPa 0,0 l/m 3,1 km/h (1 Bft) S-SW 194 2 min 0,000 mm 1,2 UV-I 389 W/m 11,8 C 14,1 C 4,8 km/h (1 Bft) 100,00 %
16.10.2016 10:46 14,2 C 86 % 1021,4 hPa 0,0 l/m 2,5 km/h (1 Bft) S-SW 198 2 min 0,000 mm 1,3 UV-I 400 W/m 11,9 C 14,2 C 4,8 km/h (1 Bft) 100,00 %
16.10.2016 10:48 14,2 C 86 % 1021,5 hPa 0,0 l/m 0,8 km/h (0 Bft) S-SW 198 2 min 0,000 mm 1,3 UV-I 414 W/m 11,9 C 14,2 C 3,2 km/h (1 Bft) 100,00 %
16.10.2016 10:50 14,3 C 85 % 1021,4 hPa 0,0 l/m 1,8 km/h (1 Bft) S-SW 198 2 min 0,000 mm 1,3 UV-I 426 W/m 11,8 C 14,3 C 3,2 km/h (1 Bft) 100,00 %
16.10.2016 10:52 14,4 C 87 % 1021,5 hPa 0,0 l/m 1,2 km/h (1 Bft) S-SW 203 2 min 0,000 mm 1,3 UV-I 442 W/m 12,3 C 14,4 C 3,2 km/h (1 Bft) 100,00 %
16.10.2016 10:54 14,6 C 85 % 1021,5 hPa 0,0 l/m 1,7 km/h (1 Bft) S-SW 203 2 min 0,000 mm 1,4 UV-I 450 W/m 12,1 C 14,6 C 4,8 km/h (1 Bft) 97,87 %
16.10.2016 10:56 14,7 C 85 % 1021,5 hPa 0,0 l/m 2,2 km/h (1 Bft) SW 223 2 min 0,000 mm 1,4 UV-I 464 W/m 12,2 C 14,7 C 4,8 km/h (1 Bft) 100,00 %
16.10.2016 10:58 14,7 C 84 % 1021,5 hPa 0,0 l/m 0,7 km/h (0 Bft) SW 223 2 min 0,000 mm 1,4 UV-I 464 W/m 12,0 C 14,7 C 3,2 km/h (1 Bft) 100,00 %
16.10.2016 11:00 14,7 C 83 % 1021,5 hPa 0,0 l/m 0,6 km/h (0 Bft) SW 223 2 min 0,177 mm 1,4 UV-I 450 W/m 11,8 C 14,7 C 1,6 km/h (1 Bft) 100,00 %
16.10.2016 11:02 14,7 C 84 % 1021,5 hPa 0,0 l/m 0,0 km/h (0 Bft) SW 223 2 min 0,000 mm 1,4 UV-I 441 W/m 12,0 C 14,7 C 1,6 km/h (1 Bft) 100,00 %
16.10.2016 11:04 14,8 C 84 % 1021,5 hPa 0,0 l/m 2,3 km/h (1 Bft) SW 223 2 min 0,000 mm 1,4 UV-I 440 W/m 12,1 C 14,8 C 4,8 km/h (1 Bft) 98,00 %
16.10.2016 11:06 14,8 C 84 % 1021,5 hPa 0,0 l/m 0,9 km/h (0 Bft) SW 225 2 min 0,000 mm 1,4 UV-I 438 W/m 12,1 C 14,8 C 3,2 km/h (1 Bft) 100,00 %
16.10.2016 11:08 14,8 C 86 % 1021,5 hPa 0,0 l/m 2,2 km/h (1 Bft) SW 226 2 min 0,000 mm 1,5 UV-I 438 W/m 12,5 C 14,8 C 4,8 km/h (1 Bft) 100,00 %
16.10.2016 11:10 14,9 C 85 % 1021,5 hPa 0,0 l/m 0,9 km/h (0 Bft) SW 231 2 min 0,000 mm 1,5 UV-I 443 W/m 12,4 C 14,9 C 3,2 km/h (1 Bft) 100,00 %
16.10.2016 11:12 15,1 C 85 % 1021,6 hPa 0,0 l/m 0,4 km/h (0 Bft) SW 231 2 min 0,000 mm 1,5 UV-I 452 W/m 12,6 C 15,1 C 1,6 km/h (1 Bft) 97,87 %
16.10.2016 11:14 15,1 C 84 % 1021,6 hPa 0,0 l/m 1,8 km/h (1 Bft) SW 234 2 min 0,000 mm 1,5 UV-I 456 W/m 12,4 C 15,1 C 4,8 km/h (1 Bft) 100,00 %
16.10.2016 11:16 15,1 C 84 % 1021,6 hPa 0,0 l/m 2,5 km/h (1 Bft) W 273 2 min 0,000 mm 1,5 UV-I 460 W/m 12,4 C 15,1 C 4,8 km/h (1 Bft) 97,87 %
16.10.2016 11:18 15,0 C 83 % 1021,5 hPa 0,0 l/m 1,7 km/h (1 Bft) NW 309 2 min 0,000 mm 1,5 UV-I 468 W/m 12,1 C 15,0 C 4,8 km/h (1 Bft) 97,87 %
16.10.2016 11:20 14,9 C 83 % 1021,5 hPa 0,0 l/m 0,5 km/h (0 Bft) NW 309 2 min 0,000 mm 1,6 UV-I 471 W/m 12,0 C 14,9 C 3,2 km/h (1 Bft) 97,87 %
16.10.2016 11:22 14,9 C 84 % 1021,5 hPa 0,0 l/m 0,9 km/h (0 Bft) NW 309 2 min 0,000 mm 1,6 UV-I 474 W/m 12,2 C 14,9 C 3,2 km/h (1 Bft) 97,37 %
16.10.2016 11:24 14,9 C 83 % 1021,5 hPa 0,0 l/m 1,1 km/h (1 Bft) NW 306 2 min 0,000 mm 1,6 UV-I 476 W/m 12,0 C 14,9 C 3,2 km/h (1 Bft) 100,00 %
16.10.2016 11:26 15,0 C 86 % 1021,5 hPa 0,0 l/m 0,8 km/h (0 Bft) NW 306 2 min 0,000 mm 1,6 UV-I 481 W/m 12,7 C 15,0 C 3,2 km/h (1 Bft) 97,87 %
16.10.2016 11:28 15,2 C 85 % 1021,6 hPa 0,0 l/m 0,3 km/h (0 Bft) NW 306 2 min 0,000 mm 1,6 UV-I 482 W/m 12,7 C 15,2 C 1,6 km/h (1 Bft) 100,00 %
16.10.2016 11:30 15,3 C 84 % 1021,5 hPa 0,0 l/m 1,8 km/h (1 Bft) NW 317 2 min 0,000 mm 1,6 UV-I 482 W/m 12,6 C 15,3 C 4,8 km/h (1 Bft) 97,87 %
16.10.2016 11:32 15,4 C 85 % 1021,5 hPa 0,0 l/m 3,2 km/h (1 Bft) N 5 2 min 0,000 mm 1,7 UV-I 489 W/m 12,9 C 15,4 C 6,4 km/h (2 Bft) 97,87 %
16.10.2016 11:34 15,4 C 83 % 1021,6 hPa 0,0 l/m 2,2 km/h (1 Bft) N 5 2 min 0,000 mm 1,7 UV-I 495 W/m 12,5 C 15,4 C 3,2 km/h (1 Bft) 100,00 %
16.10.2016 11:36 15,4 C 85 % 1021,6 hPa 0,0 l/m 2,5 km/h (1 Bft) N 10 2 min 0,000 mm 1,7 UV-I 502 W/m 12,9 C 15,4 C 6,4 km/h (2 Bft) 100,00 %
16.10.2016 11:38 15,7 C 86 % 1021,5 hPa 0,0 l/m 2,0 km/h (1 Bft) N-NO 13 2 min 0,000 mm 1,7 UV-I 504 W/m 13,4 C 15,7 C 6,4 km/h (2 Bft) 97,87 %
16.10.2016 11:40 15,9 C 84 % 1021,5 hPa 0,0 l/m 1,5 km/h (1 Bft) NW 317 2 min 0,000 mm 1,7 UV-I 503 W/m 13,2 C 15,9 C 4,8 km/h (1 Bft) 100,00 %
16.10.2016 11:42 15,8 C 82 % 1021,5 hPa 0,0 l/m 3,0 km/h (1 Bft) W-NW 298 2 min 0,000 mm 1,7 UV-I 504 W/m 12,7 C 15,8 C 4,8 km/h (1 Bft) 97,87 %
16.10.2016 11:44 15,7 C 81 % 1021,6 hPa 0,0 l/m 2,7 km/h (1 Bft) W-NW 293 2 min 0,000 mm 1,8 UV-I 509 W/m 12,4 C 15,7 C 4,8 km/h (1 Bft) 100,00 %
16.10.2016 11:46 15,7 C 81 % 1021,5 hPa 0,0 l/m 1,8 km/h (1 Bft) W-NW 293 2 min 0,000 mm 1,8 UV-I 508 W/m 12,4 C 15,7 C 3,2 km/h (1 Bft) 100,00 %
16.10.2016 11:48 15,7 C 83 % 1021,6 hPa 0,0 l/m 1,0 km/h (0 Bft) N-NW 338 2 min 0,000 mm 1,8 UV-I 500 W/m 12,8 C 15,7 C 3,2 km/h (1 Bft) 93,62 %
16.10.2016 11:50 15,9 C 85 % 1021,5 hPa 0,0 l/m 3,6 km/h (1 Bft) N-NO 28 2 min 0,000 mm 1,8 UV-I 492 W/m 13,4 C 15,9 C 6,4 km/h (2 Bft) 97,87 %
16.10.2016 11:52 15,9 C 82 % 1021,6 hPa 0,0 l/m 2,0 km/h (1 Bft) N-NO 30 2 min 0,000 mm 1,8 UV-I 497 W/m 12,8 C 15,9 C 4,8 km/h (1 Bft) 95,74 %
16.10.2016 11:54 15,8 C 83 % 1021,6 hPa 0,0 l/m 3,0 km/h (1 Bft) O 100 2 min 0,000 mm 1,8 UV-I 506 W/m 12,9 C 15,8 C 4,8 km/h (1 Bft) 93,62 %
16.10.2016 11:56 16,1 C 83 % 1021,6 hPa 0,0 l/m 4,4 km/h (1 Bft) N-NO 22 2 min 0,000 mm 1,8 UV-I 510 W/m 13,2 C 16,1 C 8,0 km/h (2 Bft) 96,00 %
16.10.2016 11:58 16,2 C 84 % 1021,6 hPa 0,0 l/m 3,1 km/h (1 Bft) N-NO 23 2 min 0,000 mm 1,8 UV-I 515 W/m 13,5 C 16,2 C 6,4 km/h (2 Bft) 97,87 %
16.10.2016 12:00 16,3 C 84 % 1021,6 hPa 0,0 l/m 2,1 km/h (1 Bft) N-NW 348 2 min 0,254 mm 1,8 UV-I 519 W/m 13,6 C 16,3 C 4,8 km/h (1 Bft) 95,74 %
16.10.2016 12:02 16,2 C 84 % 1021,6 hPa 0,0 l/m 4,5 km/h (1 Bft) N 5 2 min 0,000 mm 1,8 UV-I 519 W/m 13,5 C 16,2 C 8,0 km/h (2 Bft) 93,62 %
16.10.2016 12:04 16,2 C 84 % 1021,6 hPa 0,0 l/m 4,4 km/h (1 Bft) N 11 2 min 0,000 mm 1,8 UV-I 521 W/m 13,5 C 16,2 C 8,0 km/h (2 Bft) 95,74 %
16.10.2016 12:06 16,3 C 84 % 1021,6 hPa 0,0 l/m 1,6 km/h (1 Bft) N-NO 30 2 min 0,000 mm 1,8 UV-I 529 W/m 13,6 C 16,3 C 4,8 km/h (1 Bft) 97,87 %
16.10.2016 12:08 16,6 C 85 % 1021,6 hPa 0,0 l/m 3,1 km/h (1 Bft) N-NO 15 2 min 0,000 mm 1,9 UV-I 535 W/m 14,1 C 16,6 C 8,0 km/h (2 Bft) 95,74 %
16.10.2016 12:10 16,6 C 82 % 1021,6 hPa 0,0 l/m 4,2 km/h (1 Bft) NO 44 2 min 0,000 mm 1,9 UV-I 532 W/m 13,5 C 16,6 C 6,4 km/h (2 Bft) 97,87 %
16.10.2016 12:12 16,6 C 82 % 1021,6 hPa 0,0 l/m 7,4 km/h (2 Bft) N-NO 18 2 min 0,000 mm 1,9 UV-I 529 W/m 13,5 C 16,1 C 11,3 km/h (2 Bft) 95,74 %
16.10.2016 12:14 16,8 C 82 % 1021,6 hPa 0,0 l/m 10,1 km/h (2 Bft) NO 54 2 min 0,000 mm 1,9 UV-I 529 W/m 13,7 C 15,1 C 14,5 km/h (3 Bft) 97,87 %
16.10.2016 12:16 16,6 C 82 % 1021,6 hPa 0,0 l/m 8,0 km/h (2 Bft) N-NO 30 2 min 0,000 mm 1,9 UV-I 507 W/m 13,5 C 15,8 C 12,9 km/h (3 Bft) 97,14 %
16.10.2016 12:18 16,6 C 82 % 1021,6 hPa 0,0 l/m 6,5 km/h (2 Bft) N-NO 21 2 min 0,000 mm 1,9 UV-I 523 W/m 13,5 C 16,6 C 12,9 km/h (3 Bft) 95,83 %
16.10.2016 12:20 16,8 C 84 % 1021,7 hPa 0,0 l/m 8,0 km/h (2 Bft) NO 41 2 min 0,000 mm 1,9 UV-I 526 W/m 14,1 C 16,0 C 12,9 km/h (3 Bft) 100,00 %
16.10.2016 12:22 16,8 C 81 % 1021,6 hPa 0,0 l/m 8,9 km/h (2 Bft) NO 43 2 min 0,000 mm 1,9 UV-I 525 W/m 13,5 C 15,6 C 11,3 km/h (2 Bft) 100,00 %
16.10.2016 12:24 16,8 C 83 % 1021,6 hPa 0,0 l/m 6,7 km/h (2 Bft) O-NO 60 2 min 0,000 mm 1,9 UV-I 518 W/m 13,9 C 16,7 C 11,3 km/h (2 Bft) 100,00 %
16.10.2016 12:26 16,7 C 83 % 1021,6 hPa 0,0 l/m 6,7 km/h (2 Bft) N-NO 22 2 min 0,000 mm 1,9 UV-I 509 W/m 13,8 C 16,6 C 12,9 km/h (3 Bft) 97,87 %
16.10.2016 12:28 16,7 C 82 % 1021,6 hPa 0,0 l/m 7,7 km/h (2 Bft) NO 48 2 min 0,000 mm 1,9 UV-I 503 W/m 13,6 C 16,0 C 16,1 km/h (3 Bft) 100,00 %
16.10.2016 12:30 16,6 C 82 % 1021,6 hPa 0,0 l/m 6,3 km/h (2 Bft) N 10 2 min 0,000 mm 1,9 UV-I 502 W/m 13,5 C 16,6 C 11,3 km/h (2 Bft) 100,00 %
16.10.2016 12:32 16,5 C 82 % 1021,6 hPa 0,0 l/m 7,9 km/h (2 Bft) NO 38 2 min 0,000 mm 1,9 UV-I 501 W/m 13,4 C 15,7 C 12,9 km/h (3 Bft) 97,87 %
16.10.2016 12:34 16,4 C 80 % 1021,6 hPa 0,0 l/m 6,9 km/h (2 Bft) NO 38 2 min 0,000 mm 1,9 UV-I 502 W/m 12,9 C 16,1 C 12,9 km/h (3 Bft) 100,00 %
16.10.2016 12:36 16,4 C 81 % 1021,6 hPa 0,0 l/m 6,6 km/h (2 Bft) NO 40 2 min 0,000 mm 1,9 UV-I 500 W/m 13,1 C 16,3 C 8,0 km/h (2 Bft) 100,00 %
16.10.2016 12:38 16,4 C 79 % 1021,6 hPa 0,0 l/m 6,6 km/h (2 Bft) NO 47 2 min 0,000 mm 1,9 UV-I 497 W/m 12,7 C 16,3 C 9,7 km/h (2 Bft) 100,00 %
16.10.2016 12:40 16,4 C 79 % 1021,6 hPa 0,0 l/m 6,0 km/h (2 Bft) NO 51 2 min 0,000 mm 2,0 UV-I 506 W/m 12,7 C 16,4 C 8,0 km/h (2 Bft) 97,87 %
16.10.2016 12:42 16,5 C 81 % 1021,6 hPa 0,0 l/m 5,8 km/h (2 Bft) N-NO 22 2 min 0,000 mm 2,0 UV-I 509 W/m 13,2 C 16,5 C 9,7 km/h (2 Bft) 97,14 %
16.10.2016 12:44 16,7 C 81 % 1021,6 hPa 0,0 l/m 5,3 km/h (1 Bft) NO 44 2 min 0,000 mm 2,0 UV-I 506 W/m 13,4 C 16,7 C 9,7 km/h (2 Bft) 97,87 %
16.10.2016 12:46 16,7 C 81 % 1021,7 hPa 0,0 l/m 5,6 km/h (1 Bft) NO 44 2 min 0,000 mm 2,0 UV-I 500 W/m 13,4 C 16,7 C 8,0 km/h (2 Bft) 100,00 %
16.10.2016 12:48 16,8 C 81 % 1021,7 hPa 0,0 l/m 1,4 km/h (1 Bft) N-NO 26 2 min 0,000 mm 2,0 UV-I 496 W/m 13,5 C 16,8 C 3,2 km/h (1 Bft) 100,00 %
16.10.2016 12:50 16,7 C 82 % 1021,6 hPa 0,0 l/m 1,0 km/h (0 Bft) N-NW 341 2 min 0,000 mm 2,0 UV-I 496 W/m 13,6 C 16,7 C 3,2 km/h (1 Bft) 100,00 %
16.10.2016 12:52 16,6 C 80 % 1021,6 hPa 0,0 l/m 0,9 km/h (0 Bft) N-NW 339 2 min 0,000 mm 1,9 UV-I 496 W/m 13,1 C 16,6 C 1,6 km/h (1 Bft) 100,00 %
16.10.2016 12:54 16,6 C 80 % 1021,7 hPa 0,0 l/m 1,6 km/h (1 Bft) N-NO 15 2 min 0,000 mm 2,0 UV-I 498 W/m 13,1 C 16,6 C 4,8 km/h (1 Bft) 100,00 %
16.10.2016 12:56 16,6 C 81 % 1021,7 hPa 0,0 l/m 3,2 km/h (1 Bft) N 11 2 min 0,000 mm 2,0 UV-I 501 W/m 13,3 C 16,6 C 6,4 km/h (2 Bft) 100,00 %
16.10.2016 12:58 16,6 C 80 % 1021,7 hPa 0,0 l/m 3,0 km/h (1 Bft) N-NO 30 2 min 0,000 mm 1,9 UV-I 496 W/m 13,1 C 16,6 C 8,0 km/h (2 Bft) 100,00 %
16.10.2016 13:00 16,6 C 81 % 1021,7 hPa 0,0 l/m 3,9 km/h (1 Bft) NW 324 2 min 0,000 mm 1,9 UV-I 494 W/m 13,3 C 16,6 C 8,0 km/h (2 Bft) 100,00 %
16.10.2016 13:02 16,8 C 82 % 1021,6 hPa 0,0 l/m 1,8 km/h (1 Bft) N 355 2 min 0,280 mm 1,9 UV-I 506 W/m 13,7 C 16,8 C 4,8 km/h (1 Bft) 98,00 %
16.10.2016 13:04 16,9 C 82 % 1021,6 hPa 0,0 l/m 2,7 km/h (1 Bft) N-NW 330 2 min 0,000 mm 1,9 UV-I 514 W/m 13,8 C 16,9 C 6,4 km/h (2 Bft) 97,22 %
16.10.2016 13:06 17,0 C 80 % 1021,6 hPa 0,0 l/m 3,4 km/h (1 Bft) NO 43 2 min 0,000 mm 2,0 UV-I 524 W/m 13,5 C 17,0 C 6,4 km/h (2 Bft) 100,00 %
16.10.2016 13:08 16,9 C 79 % 1021,6 hPa 0,0 l/m 1,8 km/h (1 Bft) NO 40 2 min 0,000 mm 2,0 UV-I 542 W/m 13,2 C 16,9 C 3,2 km/h (1 Bft) 100,00 %
16.10.2016 13:10 16,9 C 81 % 1021,6 hPa 0,0 l/m 2,8 km/h (1 Bft) N-NO 31 2 min 0,000 mm 2,0 UV-I 553 W/m 13,6 C 16,9 C 6,4 km/h (2 Bft) 97,87 %
16.10.2016 13:12 16,9 C 81 % 1021,6 hPa 0,0 l/m 3,3 km/h (1 Bft) NO 46 2 min 0,000 mm 2,0 UV-I 562 W/m 13,6 C 16,9 C 8,0 km/h (2 Bft) 100,00 %
16.10.2016 13:14 17,1 C 80 % 1021,6 hPa 0,0 l/m 2,5 km/h (1 Bft) N-NO 14 2 min 0,000 mm 2,0 UV-I 570 W/m 13,6 C 17,1 C 6,4 km/h (2 Bft) 100,00 %
16.10.2016 13:16 17,3 C 83 % 1021,6 hPa 0,0 l/m 6,0 km/h (2 Bft) N 355 2 min 0,000 mm 2,0 UV-I 565 W/m 14,4 C 17,3 C 9,7 km/h (2 Bft) 100,00 %
16.10.2016 13:18 17,2 C 79 % 1021,6 hPa 0,0 l/m 1,6 km/h (1 Bft) N 11 2 min 0,000 mm 1,9 UV-I 537 W/m 13,5 C 17,2 C 4,8 km/h (1 Bft) 100,00 %
16.10.2016 13:20 17,2 C 80 % 1021,6 hPa 0,0 l/m 1,7 km/h (1 Bft) N-NW 333 2 min 0,000 mm 1,9 UV-I 521 W/m 13,7 C 17,2 C 3,2 km/h (1 Bft) 97,87 %
16.10.2016 13:22 17,1 C 78 % 1021,6 hPa 0,0 l/m 2,0 km/h (1 Bft) NW 314 2 min 0,000 mm 1,9 UV-I 538 W/m 13,2 C 17,1 C 3,2 km/h (1 Bft) 100,00 %
16.10.2016 13:24 17,1 C 81 % 1021,6 hPa 0,0 l/m 3,9 km/h (1 Bft) NO 39 2 min 0,000 mm 1,9 UV-I 500 W/m 13,8 C 17,1 C 8,0 km/h (2 Bft) 100,00 %
16.10.2016 13:26 17,0 C 80 % 1021,6 hPa 0,0 l/m 4,5 km/h (1 Bft) N-NW 328 2 min 0,000 mm 1,8 UV-I 423 W/m 13,5 C 17,0 C 8,0 km/h (2 Bft) 98,00 %
16.10.2016 13:28 17,0 C 82 % 1021,6 hPa 0,0 l/m 3,5 km/h (1 Bft) N 349 2 min 0,000 mm 1,8 UV-I 419 W/m 13,9 C 17,0 C 11,3 km/h (2 Bft) 97,87 %
16.10.2016 13:30 16,9 C 80 % 1021,5 hPa 0,0 l/m 1,4 km/h (1 Bft) N 355 2 min 0,000 mm 1,8 UV-I 426 W/m 13,4 C 16,9 C 4,8 km/h (1 Bft) 100,00 %
16.10.2016 13:32 16,9 C 80 % 1021,5 hPa 0,0 l/m 2,6 km/h (1 Bft) N-NO 15 2 min 0,000 mm 1,9 UV-I 465 W/m 13,4 C 16,9 C 4,8 km/h (1 Bft) 100,00 %
16.10.2016 13:34 16,9 C 79 % 1021,4 hPa 0,0 l/m 1,1 km/h (1 Bft) N 360 2 min 0,000 mm 1,9 UV-I 521 W/m 13,2 C 16,9 C 4,8 km/h (1 Bft) 97,87 %
16.10.2016 13:36 17,1 C 80 % 1021,5 hPa 0,0 l/m 2,9 km/h (1 Bft) N-NO 22 2 min 0,000 mm 1,9 UV-I 519 W/m 13,6 C 17,1 C 11,3 km/h (2 Bft) 97,87 %
16.10.2016 13:38 17,3 C 80 % 1021,4 hPa 0,0 l/m 4,6 km/h (1 Bft) N-NW 348 2 min 0,000 mm 1,9 UV-I 503 W/m 13,8 C 17,3 C 9,7 km/h (2 Bft) 97,87 %
16.10.2016 13:40 17,4 C 80 % 1021,4 hPa 0,0 l/m 1,0 km/h (0 Bft) NO 55 2 min 0,000 mm 1,8 UV-I 492 W/m 13,9 C 17,4 C 6,4 km/h (2 Bft) 95,83 %
16.10.2016 13:42 17,4 C 79 % 1021,4 hPa 0,0 l/m 7,1 km/h (2 Bft) NO 47 2 min 0,000 mm 1,8 UV-I 492 W/m 13,7 C 17,1 C 11,3 km/h (2 Bft) 97,87 %
16.10.2016 13:44 17,4 C 76 % 1021,4 hPa 0,0 l/m 7,3 km/h (2 Bft) NO 56 2 min 0,000 mm 1,8 UV-I 490 W/m 13,1 C 17,0 C 9,7 km/h (2 Bft) 97,87 %
16.10.2016 13:46 17,4 C 78 % 1021,4 hPa 0,0 l/m 8,0 km/h (2 Bft) NO 45 2 min 0,000 mm 1,8 UV-I 487 W/m 13,5 C 16,6 C 9,7 km/h (2 Bft) 97,87 %
16.10.2016 13:48 17,4 C 78 % 1021,4 hPa 0,0 l/m 1,9 km/h (1 Bft) SO 129 2 min 0,000 mm 1,8 UV-I 486 W/m 13,5 C 17,4 C 4,8 km/h (1 Bft) 93,62 %
16.10.2016 13:50 17,3 C 75 % 1021,3 hPa 0,0 l/m 1,9 km/h (1 Bft) N-NW 330 2 min 0,000 mm 1,8 UV-I 482 W/m 12,8 C 17,3 C 4,8 km/h (1 Bft) 98,00 %
16.10.2016 13:52 17,3 C 80 % 1021,3 hPa 0,0 l/m 3,1 km/h (1 Bft) N-NO 28 2 min 0,000 mm 1,7 UV-I 481 W/m 13,8 C 17,3 C 6,4 km/h (2 Bft) 95,74 %
16.10.2016 13:54 17,2 C 77 % 1021,3 hPa 0,0 l/m 1,6 km/h (1 Bft) N-NO 20 2 min 0,000 mm 1,7 UV-I 475 W/m 13,1 C 17,2 C 4,8 km/h (1 Bft) 97,37 %
16.10.2016 13:56 17,2 C 76 % 1021,4 hPa 0,0 l/m 0,5 km/h (0 Bft) N-NO 20 2 min 0,000 mm 1,7 UV-I 484 W/m 12,9 C 17,2 C 1,6 km/h (1 Bft) 93,62 %
16.10.2016 13:58 17,3 C 78 % 1021,3 hPa 0,0 l/m 1,5 km/h (1 Bft) N-NO 20 2 min 0,000 mm 1,7 UV-I 490 W/m 13,4 C 17,3 C 3,2 km/h (1 Bft) 95,74 %
16.10.2016 14:00 17,4 C 79 % 1021,3 hPa 0,0 l/m 1,9 km/h (1 Bft) N-NO 12 2 min 0,279 mm 1,7 UV-I 484 W/m 13,7 C 17,4 C 8,0 km/h (2 Bft) 97,87 %
16.10.2016 14:02 17,4 C 77 % 1021,3 hPa 0,0 l/m 3,3 km/h (1 Bft) N-NO 21 2 min 0,000 mm 1,7 UV-I 478 W/m 13,3 C 17,4 C 8,0 km/h (2 Bft) 97,87 %
16.10.2016 14:04 17,4 C 76 % 1021,3 hPa 0,0 l/m 4,6 km/h (1 Bft) N-NO 23 2 min 0,000 mm 1,7 UV-I 470 W/m 13,1 C 17,4 C 9,7 km/h (2 Bft) 98,00 %
16.10.2016 14:06 17,4 C 77 % 1021,2 hPa 0,0 l/m 2,2 km/h (1 Bft) NO 55 2 min 0,000 mm 1,7 UV-I 470 W/m 13,3 C 17,4 C 8,0 km/h (2 Bft) 97,87 %
16.10.2016 14:08 17,6 C 75 % 1021,2 hPa 0,0 l/m 6,3 km/h (2 Bft) NO 36 2 min 0,000 mm 1,7 UV-I 471 W/m 13,1 C 17,6 C 9,7 km/h (2 Bft) 100,00 %
16.10.2016 14:10 17,6 C 75 % 1021,2 hPa 0,0 l/m 5,8 km/h (2 Bft) NO 54 2 min 0,000 mm 1,6 UV-I 470 W/m 13,1 C 17,6 C 8,0 km/h (2 Bft) 97,87 %
16.10.2016 14:12 17,8 C 76 % 1021,2 hPa 0,0 l/m 6,1 km/h (2 Bft) N-NO 18 2 min 0,000 mm 1,6 UV-I 463 W/m 13,5 C 17,8 C 11,3 km/h (2 Bft) 100,00 %
16.10.2016 14:14 17,7 C 76 % 1021,2 hPa 0,0 l/m 3,9 km/h (1 Bft) NO 36 2 min 0,000 mm 1,6 UV-I 444 W/m 13,4 C 17,7 C 6,4 km/h (2 Bft) 100,00 %
16.10.2016 14:16 17,7 C 75 % 1021,1 hPa 0,0 l/m 3,8 km/h (1 Bft) NO 55 2 min 0,000 mm 1,6 UV-I 455 W/m 13,2 C 17,7 C 6,4 km/h (2 Bft) 97,87 %
16.10.2016 14:18 17,8 C 74 % 1021,2 hPa 0,0 l/m 1,3 km/h (1 Bft) N-NO 16 2 min 0,000 mm 1,6 UV-I 471 W/m 13,1 C 17,8 C 4,8 km/h (1 Bft) 97,87 %
16.10.2016 14:20 17,8 C 76 % 1021,2 hPa 0,0 l/m 3,7 km/h (1 Bft) O 94 2 min 0,000 mm 1,6 UV-I 465 W/m 13,5 C 17,8 C 8,0 km/h (2 Bft) 100,00 %
16.10.2016 14:22 17,8 C 71 % 1021,2 hPa 0,0 l/m 5,7 km/h (1 Bft) NO 42 2 min 0,000 mm 1,6 UV-I 470 W/m 12,5 C 17,8 C 8,0 km/h (2 Bft) 100,00 %
16.10.2016 14:24 17,9 C 75 % 1021,2 hPa 0,0 l/m 4,0 km/h (1 Bft) NO 45 2 min 0,000 mm 1,6 UV-I 471 W/m 13,4 C 17,9 C 6,4 km/h (2 Bft) 100,00 %
16.10.2016 14:26 17,9 C 72 % 1021,1 hPa 0,0 l/m 1,5 km/h (1 Bft) N-NW 342 2 min 0,000 mm 1,5 UV-I 462 W/m 12,8 C 17,9 C 3,2 km/h (1 Bft) 100,00 %
16.10.2016 14:28 18,1 C 75 % 1021,2 hPa 0,0 l/m 1,8 km/h (1 Bft) N 360 2 min 0,000 mm 1,5 UV-I 455 W/m 13,6 C 18,1 C 6,4 km/h (2 Bft) 97,87 %
16.10.2016 14:30 18,0 C 73 % 1021,1 hPa 0,0 l/m 3,0 km/h (1 Bft) NO 48 2 min 0,000 mm 1,5 UV-I 451 W/m 13,1 C 18,0 C 8,0 km/h (2 Bft) 100,00 %
16.10.2016 14:32 18,0 C 71 % 1021,1 hPa 0,0 l/m 6,1 km/h (2 Bft) NO 54 2 min 0,000 mm 1,5 UV-I 454 W/m 12,7 C 18,0 C 9,7 km/h (2 Bft) 100,00 %
16.10.2016 14:34 17,9 C 70 % 1021,1 hPa 0,0 l/m 4,5 km/h (1 Bft) NO 49 2 min 0,000 mm 1,5 UV-I 448 W/m 12,3 C 17,9 C 6,4 km/h (2 Bft) 100,00 %
16.10.2016 14:36 17,9 C 69 % 1021,1 hPa 0,0 l/m 2,8 km/h (1 Bft) NO 49 2 min 0,000 mm 1,4 UV-I 445 W/m 12,1 C 17,9 C 4,8 km/h (1 Bft) 100,00 %
16.10.2016 14:38 17,9 C 68 % 1021,1 hPa 0,0 l/m 3,2 km/h (1 Bft) O-NO 62 2 min 0,000 mm 1,4 UV-I 434 W/m 11,9 C 17,9 C 4,8 km/h (1 Bft) 97,87 %
16.10.2016 14:40 17,7 C 68 % 1021,1 hPa 0,0 l/m 1,3 km/h (1 Bft) O-NO 69 2 min 0,000 mm 1,4 UV-I 430 W/m 11,7 C 17,7 C 4,8 km/h (1 Bft) 100,00 %
16.10.2016 14:42 17,7 C 71 % 1021,1 hPa 0,0 l/m 0,3 km/h (0 Bft) NO 55 2 min 0,000 mm 1,3 UV-I 415 W/m 12,4 C 17,7 C 4,8 km/h (1 Bft) 97,87 %
16.10.2016 14:44 17,9 C 73 % 1021,1 hPa 0,0 l/m 2,1 km/h (1 Bft) NO 44 2 min 0,000 mm 1,3 UV-I 407 W/m 13,0 C 17,9 C 4,8 km/h (1 Bft) 97,87 %
16.10.2016 14:46 17,9 C 72 % 1021,1 hPa 0,0 l/m 1,5 km/h (1 Bft) NO 44 2 min 0,000 mm 1,3 UV-I 413 W/m 12,8 C 17,9 C 3,2 km/h (1 Bft) 100,00 %
16.10.2016 14:48 18,0 C 74 % 1021,1 hPa 0,0 l/m 3,8 km/h (1 Bft) O-NO 58 2 min 0,000 mm 1,3 UV-I 419 W/m 13,3 C 18,0 C 6,4 km/h (2 Bft) 100,00 %
16.10.2016 14:50 18,0 C 71 % 1021,1 hPa 0,0 l/m 2,3 km/h (1 Bft) O-SO 102 2 min 0,000 mm 1,3 UV-I 413 W/m 12,7 C 18,0 C 4,8 km/h (1 Bft) 97,87 %
16.10.2016 14:52 17,9 C 72 % 1021,0 hPa 0,0 l/m 2,0 km/h (1 Bft) N-NO 19 2 min 0,000 mm 1,3 UV-I 412 W/m 12,8 C 17,9 C 4,8 km/h (1 Bft) 100,00 %
16.10.2016 14:54 17,9 C 72 % 1021,0 hPa 0,0 l/m 2,7 km/h (1 Bft) N 360 2 min 0,000 mm 1,3 UV-I 407 W/m 12,8 C 17,9 C 6,4 km/h (2 Bft) 97,22 %
16.10.2016 14:56 17,9 C 73 % 1021,0 hPa 0,0 l/m 1,5 km/h (1 Bft) N 9 2 min 0,000 mm 1,2 UV-I 404 W/m 13,0 C 17,9 C 3,2 km/h (1 Bft) 98,00 %
16.10.2016 14:58 18,0 C 74 % 1021,0 hPa 0,0 l/m 3,9 km/h (1 Bft) O-NO 64 2 min 0,000 mm 1,2 UV-I 404 W/m 13,3 C 18,0 C 6,4 km/h (2 Bft) 95,92 %
16.10.2016 15:00 18,2 C 71 % 1021,0 hPa 0,0 l/m 6,6 km/h (2 Bft) O 84 2 min 0,254 mm 1,2 UV-I 401 W/m 12,9 C 18,1 C 9,7 km/h (2 Bft) 98,00 %
16.10.2016 15:02 18,2 C 70 % 1021,0 hPa 0,0 l/m 4,8 km/h (1 Bft) NO 45 2 min 0,000 mm 1,2 UV-I 394 W/m 12,6 C 18,2 C 8,0 km/h (2 Bft) 100,00 %
16.10.2016 15:04 18,3 C 72 % 1021,0 hPa 0,0 l/m 5,3 km/h (1 Bft) NO 44 2 min 0,000 mm 1,1 UV-I 383 W/m 13,2 C 18,3 C 9,7 km/h (2 Bft) 100,00 %
16.10.2016 15:06 18,3 C 71 % 1021,0 hPa 0,0 l/m 5,3 km/h (1 Bft) NO 52 2 min 0,000 mm 1,1 UV-I 387 W/m 12,9 C 18,3 C 8,0 km/h (2 Bft) 97,87 %
16.10.2016 15:08 18,3 C 68 % 1021,0 hPa 0,0 l/m 5,2 km/h (1 Bft) O-NO 73 2 min 0,000 mm 1,1 UV-I 383 W/m 12,3 C 18,3 C 8,0 km/h (2 Bft) 100,00 %
16.10.2016 15:10 18,1 C 68 % 1020,9 hPa 0,0 l/m 4,3 km/h (1 Bft) O 85 2 min 0,000 mm 1,1 UV-I 377 W/m 12,1 C 18,1 C 8,0 km/h (2 Bft) 95,74 %
16.10.2016 15:12 18,2 C 70 % 1020,9 hPa 0,0 l/m 5,4 km/h (1 Bft) O-NO 75 2 min 0,000 mm 1,1 UV-I 380 W/m 12,6 C 18,2 C 8,0 km/h (2 Bft) 100,00 %
16.10.2016 15:14 18,2 C 67 % 1020,9 hPa 0,0 l/m 5,6 km/h (1 Bft) O 92 2 min 0,000 mm 1,1 UV-I 380 W/m 12,0 C 18,2 C 9,7 km/h (2 Bft) 97,37 %
16.10.2016 15:16 18,2 C 68 % 1020,9 hPa 0,0 l/m 3,3 km/h (1 Bft) NO 53 2 min 0,000 mm 1,0 UV-I 376 W/m 12,2 C 18,2 C 4,8 km/h (1 Bft) 97,87 %
16.10.2016 15:18 18,3 C 69 % 1020,9 hPa 0,0 l/m 6,2 km/h (2 Bft) O-NO 74 2 min 0,000 mm 1,0 UV-I 372 W/m 12,5 C 18,3 C 11,3 km/h (2 Bft) 100,00 %
16.10.2016 15:20 18,3 C 68 % 1020,9 hPa 0,0 l/m 8,6 km/h (2 Bft) O-NO 63 2 min 0,000 mm 1,0 UV-I 369 W/m 12,3 C 17,3 C 14,5 km/h (3 Bft) 100,00 %
16.10.2016 15:22 18,3 C 68 % 1020,9 hPa 0,0 l/m 7,5 km/h (2 Bft) N-NO 17 2 min 0,000 mm 1,0 UV-I 365 W/m 12,3 C 17,8 C 12,9 km/h (3 Bft) 95,74 %
16.10.2016 15:24 18,3 C 67 % 1020,9 hPa 0,0 l/m 4,8 km/h (1 Bft) O-NO 65 2 min 0,000 mm 1,0 UV-I 359 W/m 12,1 C 18,3 C 8,0 km/h (2 Bft) 100,00 %
16.10.2016 15:26 18,3 C 66 % 1020,9 hPa 0,0 l/m 3,3 km/h (1 Bft) O-NO 57 2 min 0,000 mm 0,9 UV-I 355 W/m 11,8 C 18,3 C 6,4 km/h (2 Bft) 97,87 %
16.10.2016 15:28 18,2 C 68 % 1020,9 hPa 0,0 l/m 3,5 km/h (1 Bft) NO 53 2 min 0,000 mm 0,9 UV-I 351 W/m 12,2 C 18,2 C 4,8 km/h (1 Bft) 97,87 %
16.10.2016 15:30 18,2 C 69 % 1020,9 hPa 0,0 l/m 2,8 km/h (1 Bft) NO 53 2 min 0,000 mm 0,9 UV-I 346 W/m 12,4 C 18,2 C 4,8 km/h (1 Bft) 95,74 %
16.10.2016 15:32 18,2 C 69 % 1020,9 hPa 0,0 l/m 6,8 km/h (2 Bft) NO 49 2 min 0,000 mm 0,9 UV-I 345 W/m 12,4 C 18,0 C 11,3 km/h (2 Bft) 96,00 %
16.10.2016 15:34 18,3 C 69 % 1020,9 hPa 0,0 l/m 4,9 km/h (1 Bft) O-NO 70 2 min 0,000 mm 0,9 UV-I 341 W/m 12,5 C 18,3 C 8,0 km/h (2 Bft) 95,74 %
16.10.2016 15:36 18,3 C 68 % 1020,9 hPa 0,0 l/m 6,6 km/h (2 Bft) O-NO 71 2 min 0,000 mm 0,8 UV-I 336 W/m 12,3 C 18,2 C 12,9 km/h (3 Bft) 95,74 %
16.10.2016 15:38 18,3 C 68 % 1020,9 hPa 0,0 l/m 6,0 km/h (2 Bft) O-NO 65 2 min 0,000 mm 0,8 UV-I 329 W/m 12,3 C 18,3 C 9,7 km/h (2 Bft) 97,87 %
16.10.2016 15:40 18,2 C 69 % 1020,9 hPa 0,0 l/m 4,9 km/h (1 Bft) O-NO 58 2 min 0,000 mm 0,8 UV-I 326 W/m 12,4 C 18,2 C 8,0 km/h (2 Bft) 97,87 %
16.10.2016 15:42 18,3 C 69 % 1020,9 hPa 0,0 l/m 3,7 km/h (1 Bft) O-NO 71 2 min 0,000 mm 0,8 UV-I 320 W/m 12,5 C 18,3 C 6,4 km/h (2 Bft) 92,31 %
16.10.2016 15:44 18,3 C 70 % 1020,9 hPa 0,0 l/m 6,0 km/h (2 Bft) NO 43 2 min 0,000 mm 0,8 UV-I 315 W/m 12,7 C 18,3 C 9,7 km/h (2 Bft) 91,49 %
16.10.2016 15:46 18,2 C 71 % 1020,9 hPa 0,0 l/m 5,6 km/h (1 Bft) O 98 2 min 0,000 mm 0,7 UV-I 311 W/m 12,9 C 18,2 C 11,3 km/h (2 Bft) 97,87 %
16.10.2016 15:48 18,2 C 71 % 1020,9 hPa 0,0 l/m 5,0 km/h (1 Bft) O-NO 64 2 min 0,000 mm 0,7 UV-I 307 W/m 12,9 C 18,2 C 9,7 km/h (2 Bft) 97,87 %
16.10.2016 15:50 18,2 C 71 % 1020,9 hPa 0,0 l/m 2,2 km/h (1 Bft) NO 56 2 min 0,000 mm 0,7 UV-I 304 W/m 12,9 C 18,2 C 4,8 km/h (1 Bft) 97,87 %
16.10.2016 15:52 18,1 C 70 % 1020,9 hPa 0,0 l/m 2,1 km/h (1 Bft) NO 56 2 min 0,000 mm 0,7 UV-I 300 W/m 12,5 C 18,1 C 4,8 km/h (1 Bft) 95,74 %
16.10.2016 15:54 18,2 C 70 % 1020,9 hPa 0,0 l/m 4,6 km/h (1 Bft) NO 55 2 min 0,000 mm 0,7 UV-I 294 W/m 12,6 C 18,2 C 6,4 km/h (2 Bft) 97,87 %
16.10.2016 15:56 18,3 C 70 % 1020,9 hPa 0,0 l/m 6,6 km/h (2 Bft) NO 47 2 min 0,000 mm 0,6 UV-I 285 W/m 12,7 C 18,2 C 8,0 km/h (2 Bft) 98,00 %
16.10.2016 15:58 18,3 C 70 % 1020,9 hPa 0,0 l/m 6,7 km/h (2 Bft) NO 37 2 min 0,000 mm 0,6 UV-I 280 W/m 12,7 C 18,2 C 9,7 km/h (2 Bft) 97,87 %
16.10.2016 16:00 18,2 C 71 % 1020,9 hPa 0,0 l/m 4,1 km/h (1 Bft) NO 37 2 min 0,000 mm 0,6 UV-I 275 W/m 12,9 C 18,2 C 6,4 km/h (2 Bft) 100,00 %
16.10.2016 16:02 18,1 C 70 % 1020,9 hPa 0,0 l/m 4,1 km/h (1 Bft) O-NO 60 2 min 0,203 mm 0,6 UV-I 272 W/m 12,5 C 18,1 C 6,4 km/h (2 Bft) 97,37 %
16.10.2016 16:04 18,0 C 70 % 1020,9 hPa 0,0 l/m 3,7 km/h (1 Bft) O 98 2 min 0,000 mm 0,6 UV-I 269 W/m 12,4 C 18,0 C 6,4 km/h (2 Bft) 97,87 %
16.10.2016 16:06 18,1 C 71 % 1020,9 hPa 0,0 l/m 3,6 km/h (1 Bft) NO 44 2 min 0,000 mm 0,6 UV-I 263 W/m 12,8 C 18,1 C 4,8 km/h (1 Bft) 97,87 %
16.10.2016 16:08 18,1 C 70 % 1020,9 hPa 0,0 l/m 5,1 km/h (1 Bft) O-NO 57 2 min 0,000 mm 0,5 UV-I 258 W/m 12,5 C 18,1 C 6,4 km/h (2 Bft) 97,87 %
16.10.2016 16:10 18,1 C 71 % 1020,9 hPa 0,0 l/m 4,5 km/h (1 Bft) O-NO 57 2 min 0,000 mm 0,5 UV-I 253 W/m 12,8 C 18,1 C 9,7 km/h (2 Bft) 100,00 %
16.10.2016 16:12 18,1 C 70 % 1020,8 hPa 0,0 l/m 7,4 km/h (2 Bft) NO 46 2 min 0,000 mm 0,5 UV-I 251 W/m 12,5 C 17,6 C 9,7 km/h (2 Bft) 100,00 %
16.10.2016 16:14 18,1 C 72 % 1020,8 hPa 0,0 l/m 6,1 km/h (2 Bft) NO 40 2 min 0,000 mm 0,5 UV-I 248 W/m 13,0 C 18,1 C 8,0 km/h (2 Bft) 100,00 %
16.10.2016 16:16 18,1 C 71 % 1020,8 hPa 0,0 l/m 6,4 km/h (2 Bft) NO 53 2 min 0,000 mm 0,5 UV-I 244 W/m 12,8 C 18,1 C 9,7 km/h (2 Bft) 100,00 %
16.10.2016 16:18 18,1 C 71 % 1020,8 hPa 0,0 l/m 6,0 km/h (2 Bft) NO 48 2 min 0,000 mm 0,5 UV-I 239 W/m 12,8 C 18,1 C 8,0 km/h (2 Bft) 100,00 %
16.10.2016 16:20 18,0 C 72 % 1020,8 hPa 0,0 l/m 3,9 km/h (1 Bft) O-NO 69 2 min 0,000 mm 0,2 UV-I 234 W/m 12,9 C 18,0 C 8,0 km/h (2 Bft) 100,00 %
16.10.2016 16:22 18,1 C 71 % 1020,8 hPa 0,0 l/m 7,3 km/h (2 Bft) O-NO 67 2 min 0,000 mm 0,0 UV-I 229 W/m 12,8 C 17,7 C 11,3 km/h (2 Bft) 100,00 %
16.10.2016 16:24 18,1 C 70 % 1020,8 hPa 0,0 l/m 4,4 km/h (1 Bft) NO 55 2 min 0,000 mm 0,0 UV-I 218 W/m 12,5 C 18,1 C 6,4 km/h (2 Bft) 97,87 %
16.10.2016 16:26 18,1 C 70 % 1020,8 hPa 0,0 l/m 3,9 km/h (1 Bft) NO 53 2 min 0,000 mm 0,0 UV-I 167 W/m 12,5 C 18,1 C 6,4 km/h (2 Bft) 100,00 %
16.10.2016 16:28 18,1 C 70 % 1020,8 hPa 0,0 l/m 4,2 km/h (1 Bft) O-NO 63 0 min 0,000 mm 0,0 UV-I 135 W/m 12,5 C 18,1 C 6,4 km/h (2 Bft) 100,00 %
16.10.2016 16:30 18,1 C 71 % 1020,8 hPa 0,0 l/m 3,6 km/h (1 Bft) O-NO 60 0 min 0,000 mm 0,0 UV-I 141 W/m 12,8 C 18,1 C 6,4 km/h (2 Bft) 98,00 %
16.10.2016 16:32 18,1 C 69 % 1020,8 hPa 0,0 l/m 6,2 km/h (2 Bft) NO 48 2 min 0,000 mm 0,0 UV-I 173 W/m 12,3 C 18,1 C 8,0 km/h (2 Bft) 100,00 %
16.10.2016 16:34 18,1 C 70 % 1020,8 hPa 0,0 l/m 5,5 km/h (1 Bft) NO 55 2 min 0,000 mm 0,0 UV-I 175 W/m 12,5 C 18,1 C 8,0 km/h (2 Bft) 100,00 %
16.10.2016 16:36 17,9 C 70 % 1020,8 hPa 0,0 l/m 5,5 km/h (1 Bft) NO 50 2 min 0,000 mm 0,0 UV-I 163 W/m 12,3 C 17,9 C 8,0 km/h (2 Bft) 97,87 %
16.10.2016 16:38 17,9 C 69 % 1020,7 hPa 0,0 l/m 6,1 km/h (2 Bft) O-NO 60 2 min 0,000 mm 0,0 UV-I 160 W/m 12,1 C 17,9 C 8,0 km/h (2 Bft) 100,00 %
16.10.2016 16:40 18,0 C 69 % 1020,8 hPa 0,0 l/m 6,6 km/h (2 Bft) O-NO 63 2 min 0,000 mm 0,0 UV-I 162 W/m 12,2 C 17,9 C 9,7 km/h (2 Bft) 97,87 %
16.10.2016 16:42 17,9 C 71 % 1020,8 hPa 0,0 l/m 4,0 km/h (1 Bft) O-NO 71 2 min 0,000 mm 0,0 UV-I 155 W/m 12,6 C 17,9 C 6,4 km/h (2 Bft) 100,00 %
16.10.2016 16:44 17,8 C 72 % 1020,8 hPa 0,0 l/m 2,6 km/h (1 Bft) O-NO 71 0 min 0,000 mm 0,0 UV-I 122 W/m 12,7 C 17,8 C 6,4 km/h (2 Bft) 100,00 %
16.10.2016 16:46 17,8 C 71 % 1020,8 hPa 0,0 l/m 6,9 km/h (2 Bft) O-NO 78 0 min 0,000 mm 0,0 UV-I 114 W/m 12,5 C 17,6 C 12,9 km/h (3 Bft) 98,00 %
16.10.2016 16:48 17,8 C 71 % 1020,8 hPa 0,0 l/m 7,2 km/h (2 Bft) O-NO 69 2 min 0,000 mm 0,0 UV-I 128 W/m 12,5 C 17,4 C 11,3 km/h (2 Bft) 100,00 %
16.10.2016 16:50 17,8 C 72 % 1020,8 hPa 0,0 l/m 5,1 km/h (1 Bft) O-NO 65 0 min 0,000 mm 0,0 UV-I 101 W/m 12,7 C 17,8 C 8,0 km/h (2 Bft) 100,00 %
16.10.2016 16:52 17,7 C 72 % 1020,8 hPa 0,0 l/m 4,7 km/h (1 Bft) O-NO 76 2 min 0,000 mm 0,0 UV-I 136 W/m 12,6 C 17,7 C 8,0 km/h (2 Bft) 100,00 %
16.10.2016 16:54 17,7 C 72 % 1020,8 hPa 0,0 l/m 5,3 km/h (1 Bft) O-NO 64 2 min 0,000 mm 0,0 UV-I 134 W/m 12,6 C 17,7 C 8,0 km/h (2 Bft) 100,00 %
16.10.2016 16:56 17,7 C 72 % 1020,8 hPa 0,0 l/m 5,4 km/h (1 Bft) O-NO 76 2 min 0,000 mm 0,0 UV-I 130 W/m 12,6 C 17,7 C 8,0 km/h (2 Bft) 95,74 %
16.10.2016 16:58 17,7 C 72 % 1020,8 hPa 0,0 l/m 7,0 km/h (2 Bft) O-NO 67 2 min 0,000 mm 0,0 UV-I 134 W/m 12,6 C 17,4 C 11,3 km/h (2 Bft) 100,00 %
16.10.2016 17:00 17,7 C 72 % 1020,8 hPa 0,0 l/m 4,9 km/h (1 Bft) O-NO 67 2 min 0,000 mm 0,0 UV-I 150 W/m 12,6 C 17,7 C 8,0 km/h (2 Bft) 100,00 %
16.10.2016 17:02 17,6 C 72 % 1020,8 hPa 0,0 l/m 5,1 km/h (1 Bft) O-NO 76 2 min 0,127 mm 0,0 UV-I 154 W/m 12,5 C 17,6 C 6,4 km/h (2 Bft) 100,00 %
16.10.2016 17:04 17,6 C 73 % 1020,8 hPa 0,0 l/m 4,6 km/h (1 Bft) O 81 2 min 0,000 mm 0,0 UV-I 152 W/m 12,7 C 17,6 C 6,4 km/h (2 Bft) 100,00 %
16.10.2016 17:06 17,5 C 73 % 1020,8 hPa 0,0 l/m 4,8 km/h (1 Bft) O-NO 68 2 min 0,000 mm 0,0 UV-I 150 W/m 12,6 C 17,5 C 8,0 km/h (2 Bft) 96,00 %
16.10.2016 17:08 17,4 C 74 % 1020,8 hPa 0,0 l/m 4,5 km/h (1 Bft) O-NO 57 2 min 0,000 mm 0,0 UV-I 148 W/m 12,7 C 17,4 C 6,4 km/h (2 Bft) 100,00 %
16.10.2016 17:10 17,4 C 74 % 1020,9 hPa 0,0 l/m 3,7 km/h (1 Bft) NO 53 2 min 0,000 mm 0,0 UV-I 146 W/m 12,7 C 17,4 C 6,4 km/h (2 Bft) 100,00 %
16.10.2016 17:12 17,5 C 72 % 1020,9 hPa 0,0 l/m 4,9 km/h (1 Bft) NO 38 2 min 0,000 mm 0,0 UV-I 144 W/m 12,4 C 17,5 C 6,4 km/h (2 Bft) 100,00 %
16.10.2016 17:14 17,4 C 73 % 1020,9 hPa 0,0 l/m 4,0 km/h (1 Bft) O-NO 67 2 min 0,000 mm 0,0 UV-I 142 W/m 12,5 C 17,4 C 6,4 km/h (2 Bft) 100,00 %
16.10.2016 17:16 17,3 C 73 % 1020,9 hPa 0,0 l/m 2,3 km/h (1 Bft) O-NO 60 2 min 0,000 mm 0,0 UV-I 140 W/m 12,4 C 17,3 C 4,8 km/h (1 Bft) 97,87 %
16.10.2016 17:18 17,3 C 74 % 1020,9 hPa 0,0 l/m 2,6 km/h (1 Bft) O-NO 60 2 min 0,000 mm 0,0 UV-I 138 W/m 12,6 C 17,3 C 3,2 km/h (1 Bft) 95,74 %
16.10.2016 17:20 17,3 C 74 % 1020,9 hPa 0,0 l/m 2,0 km/h (1 Bft) O-NO 60 2 min 0,000 mm 0,0 UV-I 136 W/m 12,6 C 17,3 C 3,2 km/h (1 Bft) 100,00 %
16.10.2016 17:22 17,2 C 74 % 1020,9 hPa 0,0 l/m 2,7 km/h (1 Bft) O-NO 64 2 min 0,000 mm 0,0 UV-I 134 W/m 12,5 C 17,2 C 4,8 km/h (1 Bft) 100,00 %
16.10.2016 17:24 17,2 C 74 % 1020,9 hPa 0,0 l/m 4,5 km/h (1 Bft) O-NO 72 2 min 0,000 mm 0,0 UV-I 132 W/m 12,5 C 17,2 C 6,4 km/h (2 Bft) 98,00 %
16.10.2016 17:26 17,2 C 75 % 1021,0 hPa 0,0 l/m 3,3 km/h (1 Bft) O-NO 59 2 min 0,000 mm 0,0 UV-I 130 W/m 12,7 C 17,2 C 6,4 km/h (2 Bft) 97,87 %
16.10.2016 17:28 17,1 C 75 % 1021,0 hPa 0,0 l/m 4,8 km/h (1 Bft) O-NO 75 2 min 0,000 mm 0,0 UV-I 128 W/m 12,6 C 17,1 C 6,4 km/h (2 Bft) 95,74 %
16.10.2016 17:30 17,1 C 75 % 1021,1 hPa 0,0 l/m 3,6 km/h (1 Bft) O 80 2 min 0,000 mm 0,0 UV-I 126 W/m 12,6 C 17,1 C 6,4 km/h (2 Bft) 97,87 %
16.10.2016 17:32 17,0 C 76 % 1021,1 hPa 0,0 l/m 4,3 km/h (1 Bft) O-NO 63 2 min 0,000 mm 0,0 UV-I 124 W/m 12,7 C 17,0 C 6,4 km/h (2 Bft) 93,75 %
16.10.2016 17:34 16,9 C 76 % 1021,1 hPa 0,0 l/m 4,2 km/h (1 Bft) O-NO 71 2 min 0,000 mm 0,0 UV-I 122 W/m 12,6 C 16,9 C 6,4 km/h (2 Bft) 95,74 %
16.10.2016 17:36 16,9 C 76 % 1021,0 hPa 0,0 l/m 4,4 km/h (1 Bft) O-NO 67 2 min 0,000 mm 0,0 UV-I 120 W/m 12,6 C 16,9 C 6,4 km/h (2 Bft) 95,92 %
16.10.2016 17:38 16,8 C 77 % 1021,0 hPa 0,0 l/m 4,2 km/h (1 Bft) O 84 2 min 0,000 mm 0,0 UV-I 116 W/m 12,7 C 16,8 C 6,4 km/h (2 Bft) 95,83 %
16.10.2016 17:40 16,7 C 77 % 1021,0 hPa 0,0 l/m 4,8 km/h (1 Bft) O 82 2 min 0,000 mm 0,0 UV-I 114 W/m 12,6 C 16,7 C 6,4 km/h (2 Bft) 97,87 %
16.10.2016 17:42 16,7 C 77 % 1020,9 hPa 0,0 l/m 4,1 km/h (1 Bft) O-NO 77 2 min 0,000 mm 0,0 UV-I 110 W/m 12,6 C 16,7 C 6,4 km/h (2 Bft) 95,65 %
16.10.2016 17:44 16,7 C 78 % 1020,9 hPa 0,0 l/m 3,8 km/h (1 Bft) O-NO 70 2 min 0,000 mm 0,0 UV-I 108 W/m 12,8 C 16,7 C 4,8 km/h (1 Bft) 98,39 %
16.10.2016 17:46 16,5 C 78 % 1020,9 hPa 0,0 l/m 2,7 km/h (1 Bft) O-NO 70 2 min 0,000 mm 0,0 UV-I 106 W/m 12,6 C 16,5 C 4,8 km/h (1 Bft) 93,62 %
16.10.2016 17:48 16,3 C 80 % 1021,0 hPa 0,0 l/m 3,4 km/h (1 Bft) O-NO 69 2 min 0,000 mm 0,0 UV-I 100 W/m 12,8 C 16,3 C 4,8 km/h (1 Bft) 97,87 %
16.10.2016 17:50 16,2 C 79 % 1021,0 hPa 0,0 l/m 3,6 km/h (1 Bft) O-NO 70 2 min 0,000 mm 0,0 UV-I 80 W/m 12,6 C 16,2 C 6,4 km/h (2 Bft) 97,87 %
16.10.2016 17:52 16,2 C 79 % 1020,9 hPa 0,0 l/m 3,8 km/h (1 Bft) O 82 2 min 0,000 mm 0,0 UV-I 75 W/m 12,6 C 16,2 C 4,8 km/h (1 Bft) 93,62 %
16.10.2016 17:54 16,1 C 80 % 1020,9 hPa 0,0 l/m 4,2 km/h (1 Bft) O-NO 73 2 min 0,000 mm 0,0 UV-I 60 W/m 12,6 C 16,1 C 6,4 km/h (2 Bft) 95,74 %
16.10.2016 17:56 16,1 C 79 % 1021,0 hPa 0,0 l/m 4,1 km/h (1 Bft) O-NO 71 2 min 0,000 mm 0,0 UV-I 50 W/m 12,5 C 16,1 C 6,4 km/h (2 Bft) 97,87 %
16.10.2016 17:58 16,0 C 80 % 1021,0 hPa 0,0 l/m 3,2 km/h (1 Bft) O-NO 71 0 min 0,000 mm 0,0 UV-I 14 W/m 12,5 C 16,0 C 4,8 km/h (1 Bft) 97,87 %
16.10.2016 18:00 15,9 C 80 % 1021,0 hPa 0,0 l/m 3,4 km/h (1 Bft) O-NO 71 2 min 0,026 mm 0,0 UV-I 13 W/m 12,5 C 15,9 C 6,4 km/h (2 Bft) 97,87 %
16.10.2016 18:02 15,9 C 79 % 1020,9 hPa 0,0 l/m 3,1 km/h (1 Bft) O-NO 71 2 min 0,000 mm 0,0 UV-I 12 W/m 12,3 C 15,9 C 4,8 km/h (1 Bft) 97,87 %
16.10.2016 18:04 15,9 C 80 % 1020,9 hPa 0,0 l/m 3,4 km/h (1 Bft) O-NO 71 0 min 0,000 mm 0,0 UV-I 11 W/m 12,5 C 15,9 C 4,8 km/h (1 Bft) 95,92 %
16.10.2016 18:06 15,9 C 79 % 1020,9 hPa 0,0 l/m 2,4 km/h (1 Bft) O-NO 71 0 min 0,000 mm 0,0 UV-I 8 W/m 12,3 C 15,9 C 3,2 km/h (1 Bft) 100,00 %
16.10.2016 18:08 15,9 C 79 % 1020,9 hPa 0,0 l/m 2,1 km/h (1 Bft) O-NO 71 0 min 0,000 mm 0,0 UV-I 7 W/m 12,3 C 15,9 C 3,2 km/h (1 Bft) 100,00 %
16.10.2016 18:10 15,9 C 79 % 1020,9 hPa 0,0 l/m 2,6 km/h (1 Bft) O-NO 71 0 min 0,000 mm 0,0 UV-I 6 W/m 12,3 C 15,9 C 3,2 km/h (1 Bft) 97,87 %
16.10.2016 18:12 15,8 C 79 % 1020,9 hPa 0,0 l/m 2,7 km/h (1 Bft) O-NO 71 0 min 0,000 mm 0,0 UV-I 5 W/m 12,2 C 15,8 C 4,8 km/h (1 Bft) 97,87 %
16.10.2016 18:14 15,7 C 80 % 1020,9 hPa 0,0 l/m 2,9 km/h (1 Bft) O-NO 71 0 min 0,000 mm 0,0 UV-I 5 W/m 12,3 C 15,7 C 4,8 km/h (1 Bft) 100,00 %
16.10.2016 18:16 15,7 C 80 % 1020,9 hPa 0,0 l/m 3,0 km/h (1 Bft) O-NO 71 0 min 0,000 mm 0,0 UV-I 0 W/m 12,3 C 15,7 C 4,8 km/h (1 Bft) 100,00 %
16.10.2016 18:18 15,6 C 80 % 1020,9 hPa 0,0 l/m 2,8 km/h (1 Bft) O-NO 71 0 min 0,000 mm 0,0 UV-I 0 W/m 12,2 C 15,6 C 3,2 km/h (1 Bft) 100,00 %
16.10.2016 18:20 15,6 C 80 % 1020,9 hPa 0,0 l/m 2,8 km/h (1 Bft) O-NO 71 0 min 0,000 mm 0,0 UV-I 0 W/m 12,2 C 15,6 C 4,8 km/h (1 Bft) 97,87 %
16.10.2016 18:22 15,4 C 81 % 1020,9 hPa 0,0 l/m 2,7 km/h (1 Bft) O-NO 71 0 min 0,000 mm 0,0 UV-I 0 W/m 12,2 C 15,4 C 3,2 km/h (1 Bft) 100,00 %
16.10.2016 18:24 15,4 C 81 % 1020,9 hPa 0,0 l/m 2,6 km/h (1 Bft) O-NO 71 0 min 0,000 mm 0,0 UV-I 0 W/m 12,2 C 15,4 C 3,2 km/h (1 Bft) 100,00 %
16.10.2016 18:26 15,4 C 81 % 1020,9 hPa 0,0 l/m 1,5 km/h (1 Bft) O-NO 71 0 min 0,000 mm 0,0 UV-I 0 W/m 12,2 C 15,4 C 3,2 km/h (1 Bft) 100,00 %
16.10.2016 18:28 15,4 C 81 % 1020,9 hPa 0,0 l/m 1,9 km/h (1 Bft) O-NO 71 0 min 0,000 mm 0,0 UV-I 0 W/m 12,2 C 15,4 C 3,2 km/h (1 Bft) 100,00 %
16.10.2016 18:30 15,3 C 81 % 1020,9 hPa 0,0 l/m 1,7 km/h (1 Bft) O-NO 71 0 min 0,000 mm 0,0 UV-I 0 W/m 12,1 C 15,3 C 3,2 km/h (1 Bft) 100,00 %
16.10.2016 18:32 15,2 C 82 % 1021,0 hPa 0,0 l/m 1,2 km/h (1 Bft) O-NO 71 0 min 0,000 mm 0,0 UV-I 0 W/m 12,1 C 15,2 C 3,2 km/h (1 Bft) 100,00 %
16.10.2016 18:34 15,2 C 82 % 1021,0 hPa 0,0 l/m 1,3 km/h (1 Bft) O-NO 71 0 min 0,000 mm 0,0 UV-I 0 W/m 12,1 C 15,2 C 1,6 km/h (1 Bft) 97,96 %
16.10.2016 18:36 15,1 C 82 % 1021,0 hPa 0,0 l/m 1,0 km/h (0 Bft) O-NO 71 0 min 0,000 mm 0,0 UV-I 0 W/m 12,0 C 15,1 C 1,6 km/h (1 Bft) 100,00 %
16.10.2016 18:38 14,8 C 83 % 1021,0 hPa 0,0 l/m 0,4 km/h (0 Bft) O-NO 71 0 min 0,000 mm 0,0 UV-I 0 W/m 11,9 C 14,8 C 1,6 km/h (1 Bft) 97,87 %
16.10.2016 18:40 14,6 C 84 % 1021,0 hPa 0,0 l/m 0,4 km/h (0 Bft) O-NO 71 0 min 0,000 mm 0,0 UV-I 0 W/m 11,9 C 14,6 C 1,6 km/h (1 Bft) 100,00 %
16.10.2016 18:42 14,5 C 84 % 1020,9 hPa 0,0 l/m 1,4 km/h (1 Bft) O-NO 71 0 min 0,000 mm 0,0 UV-I 0 W/m 11,8 C 14,5 C 3,2 km/h (1 Bft) 100,00 %
16.10.2016 18:44 14,3 C 85 % 1020,9 hPa 0,0 l/m 1,5 km/h (1 Bft) O-NO 71 0 min 0,000 mm 0,0 UV-I 0 W/m 11,8 C 14,3 C 3,2 km/h (1 Bft) 97,87 %
16.10.2016 18:46 14,1 C 85 % 1021,0 hPa 0,0 l/m 2,0 km/h (1 Bft) O-NO 71 0 min 0,000 mm 0,0 UV-I 0 W/m 11,6 C 14,1 C 3,2 km/h (1 Bft) 100,00 %
16.10.2016 18:48 13,9 C 86 % 1021,0 hPa 0,0 l/m 2,5 km/h (1 Bft) O-NO 71 0 min 0,000 mm 0,0 UV-I 0 W/m 11,6 C 13,9 C 3,2 km/h (1 Bft) 100,00 %
16.10.2016 18:50 13,8 C 87 % 1021,0 hPa 0,0 l/m 2,6 km/h (1 Bft) O-NO 71 0 min 0,000 mm 0,0 UV-I 0 W/m 11,7 C 13,8 C 3,2 km/h (1 Bft) 100,00 %
16.10.2016 18:52 13,7 C 88 % 1021,1 hPa 0,0 l/m 2,1 km/h (1 Bft) O-NO 71 0 min 0,000 mm 0,0 UV-I 0 W/m 11,7 C 13,7 C 3,2 km/h (1 Bft) 100,00 %
16.10.2016 18:54 13,6 C 88 % 1021,1 hPa 0,0 l/m 2,2 km/h (1 Bft) O-NO 71 0 min 0,000 mm 0,0 UV-I 0 W/m 11,6 C 13,6 C 3,2 km/h (1 Bft) 97,92 %
16.10.2016 18:56 13,4 C 88 % 1021,1 hPa 0,0 l/m 2,7 km/h (1 Bft) O-NO 71 0 min 0,000 mm 0,0 UV-I 0 W/m 11,5 C 13,4 C 3,2 km/h (1 Bft) 97,87 %
16.10.2016 18:58 13,3 C 89 % 1021,1 hPa 0,0 l/m 3,1 km/h (1 Bft) O-NO 71 0 min 0,000 mm 0,0 UV-I 0 W/m 11,5 C 13,3 C 4,8 km/h (1 Bft) 100,00 %
16.10.2016 19:00 13,2 C 89 % 1021,1 hPa 0,0 l/m 3,1 km/h (1 Bft) O-NO 71 0 min 0,000 mm 0,0 UV-I 0 W/m 11,4 C 13,2 C 4,8 km/h (1 Bft) 100,00 %
16.10.2016 19:03 13,2 C 90 % 1021,2 hPa 0,0 l/m 3,7 km/h (1 Bft) O-NO 71 0 min 0,000 mm 0,0 UV-I 0 W/m 11,6 C 13,2 C 6,4 km/h (2 Bft) 97,37 %
16.10.2016 19:04 13,2 C 90 % 1021,2 hPa 0,0 l/m 4,1 km/h (1 Bft) O-NO 71 0 min 0,000 mm 0,0 UV-I 0 W/m 11,6 C 13,2 C 4,8 km/h (1 Bft) 100,00 %
16.10.2016 19:06 13,3 C 90 % 1021,2 hPa 0,0 l/m 4,9 km/h (1 Bft) O-NO 76 0 min 0,000 mm 0,0 UV-I 0 W/m 11,7 C 13,3 C 6,4 km/h (2 Bft) 100,00 %
16.10.2016 19:08 13,4 C 90 % 1021,2 hPa 0,0 l/m 4,3 km/h (1 Bft) O 80 0 min 0,000 mm 0,0 UV-I 0 W/m 11,8 C 13,4 C 8,0 km/h (2 Bft) 100,00 %
16.10.2016 19:10 13,4 C 90 % 1021,2 hPa 0,0 l/m 4,9 km/h (1 Bft) O 86 0 min 0,000 mm 0,0 UV-I 0 W/m 11,8 C 13,4 C 6,4 km/h (2 Bft) 97,87 %
16.10.2016 19:12 13,6 C 90 % 1021,2 hPa 0,0 l/m 5,0 km/h (1 Bft) O-NO 78 0 min 0,000 mm 0,0 UV-I 0 W/m 12,0 C 13,6 C 8,0 km/h (2 Bft) 100,00 %
16.10.2016 19:14 13,8 C 89 % 1021,2 hPa 0,0 l/m 4,8 km/h (1 Bft) O 87 0 min 0,000 mm 0,0 UV-I 0 W/m 12,0 C 13,8 C 8,0 km/h (2 Bft) 100,00 %
16.10.2016 19:16 14,1 C 88 % 1021,2 hPa 0,0 l/m 4,8 km/h (1 Bft) O-NO 65 0 min 0,000 mm 0,0 UV-I 0 W/m 12,1 C 14,1 C 8,0 km/h (2 Bft) 100,00 %
16.10.2016 19:18 14,3 C 87 % 1021,2 hPa 0,0 l/m 5,2 km/h (1 Bft) O-NO 68 0 min 0,000 mm 0,0 UV-I 0 W/m 12,2 C 14,3 C 8,0 km/h (2 Bft) 97,87 %
16.10.2016 19:20 14,3 C 86 % 1021,2 hPa 0,0 l/m 5,4 km/h (1 Bft) O-NO 69 0 min 0,000 mm 0,0 UV-I 0 W/m 12,0 C 14,3 C 8,0 km/h (2 Bft) 100,00 %
16.10.2016 19:22 14,4 C 86 % 1021,2 hPa 0,0 l/m 5,1 km/h (1 Bft) O-NO 77 0 min 0,000 mm 0,0 UV-I 0 W/m 12,1 C 14,4 C 8,0 km/h (2 Bft) 100,00 %
16.10.2016 19:24 14,4 C 86 % 1021,2 hPa 0,0 l/m 5,5 km/h (1 Bft) O-NO 69 0 min 0,000 mm 0,0 UV-I 0 W/m 12,1 C 14,4 C 8,0 km/h (2 Bft) 100,00 %
16.10.2016 19:26 14,4 C 86 % 1021,2 hPa 0,0 l/m 4,9 km/h (1 Bft) O-NO 67 0 min 0,000 mm 0,0 UV-I 0 W/m 12,1 C 14,4 C 8,0 km/h (2 Bft) 100,00 %
16.10.2016 19:28 14,4 C 86 % 1021,2 hPa 0,0 l/m 5,2 km/h (1 Bft) O-NO 72 0 min 0,000 mm 0,0 UV-I 0 W/m 12,1 C 14,4 C 8,0 km/h (2 Bft) 97,92 %
16.10.2016 19:30 14,4 C 86 % 1021,3 hPa 0,0 l/m 6,5 km/h (2 Bft) O 85 0 min 0,000 mm 0,0 UV-I 0 W/m 12,1 C 14,4 C 8,0 km/h (2 Bft) 100,00 %
16.10.2016 19:32 14,4 C 86 % 1021,3 hPa 0,0 l/m 7,6 km/h (2 Bft) O-NO 62 0 min 0,000 mm 0,0 UV-I 0 W/m 12,1 C 13,7 C 12,9 km/h (3 Bft) 100,00 %
16.10.2016 19:34 14,4 C 86 % 1021,3 hPa 0,0 l/m 6,9 km/h (2 Bft) O-NO 61 0 min 0,000 mm 0,0 UV-I 0 W/m 12,1 C 14,1 C 9,7 km/h (2 Bft) 100,00 %
16.10.2016 19:36 14,3 C 86 % 1021,4 hPa 0,0 l/m 6,9 km/h (2 Bft) O 80 0 min 0,000 mm 0,0 UV-I 0 W/m 12,0 C 14,0 C 11,3 km/h (2 Bft) 100,00 %
16.10.2016 19:38 14,3 C 86 % 1021,4 hPa 0,0 l/m 7,9 km/h (2 Bft) O 80 0 min 0,000 mm 0,0 UV-I 0 W/m 12,0 C 13,4 C 11,3 km/h (2 Bft) 98,11 %
16.10.2016 19:40 14,3 C 86 % 1021,4 hPa 0,0 l/m 6,8 km/h (2 Bft) O-NO 71 0 min 0,000 mm 0,0 UV-I 0 W/m 12,0 C 14,1 C 11,3 km/h (2 Bft) 100,00 %
16.10.2016 19:42 14,3 C 87 % 1021,4 hPa 0,0 l/m 7,6 km/h (2 Bft) O-NO 76 0 min 0,000 mm 0,0 UV-I 0 W/m 12,2 C 13,6 C 14,5 km/h (3 Bft) 95,74 %
16.10.2016 19:44 14,3 C 87 % 1021,5 hPa 0,0 l/m 7,5 km/h (2 Bft) O 94 0 min 0,000 mm 0,0 UV-I 0 W/m 12,2 C 13,7 C 12,9 km/h (3 Bft) 95,74 %
16.10.2016 19:46 14,3 C 87 % 1021,5 hPa 0,0 l/m 6,5 km/h (2 Bft) O 79 0 min 0,000 mm 0,0 UV-I 0 W/m 12,2 C 14,3 C 11,3 km/h (2 Bft) 95,74 %
16.10.2016 19:48 14,3 C 87 % 1021,5 hPa 0,0 l/m 7,4 km/h (2 Bft) O 98 0 min 0,000 mm 0,0 UV-I 0 W/m 12,2 C 13,7 C 12,9 km/h (3 Bft) 95,74 %
16.10.2016 19:50 14,2 C 87 % 1021,5 hPa 0,0 l/m 8,0 km/h (2 Bft) O-NO 73 0 min 0,000 mm 0,0 UV-I 0 W/m 12,1 C 13,3 C 11,3 km/h (2 Bft) 97,87 %
16.10.2016 19:52 14,2 C 87 % 1021,5 hPa 0,0 l/m 8,1 km/h (2 Bft) O-NO 75 0 min 0,000 mm 0,0 UV-I 0 W/m 12,1 C 13,2 C 12,9 km/h (3 Bft) 93,62 %
16.10.2016 19:54 14,2 C 87 % 1021,5 hPa 0,0 l/m 6,6 km/h (2 Bft) O 90 0 min 0,000 mm 0,0 UV-I 0 W/m 12,1 C 14,1 C 11,3 km/h (2 Bft) 100,00 %
16.10.2016 19:56 14,2 C 87 % 1021,5 hPa 0,0 l/m 6,5 km/h (2 Bft) O 84 0 min 0,000 mm 0,0 UV-I 0 W/m 12,1 C 14,2 C 12,9 km/h (3 Bft) 93,62 %
16.10.2016 19:58 14,1 C 87 % 1021,5 hPa 0,0 l/m 6,0 km/h (2 Bft) O-NO 76 0 min 0,000 mm 0,0 UV-I 0 W/m 12,0 C 14,1 C 9,7 km/h (2 Bft) 97,87 %
16.10.2016 20:00 14,1 C 87 % 1021,5 hPa 0,0 l/m 5,3 km/h (1 Bft) O 81 0 min 0,000 mm 0,0 UV-I 0 W/m 12,0 C 14,1 C 8,0 km/h (2 Bft) 97,87 %
16.10.2016 20:02 13,9 C 88 % 1021,5 hPa 0,0 l/m 6,0 km/h (2 Bft) O-NO 61 0 min 0,000 mm 0,0 UV-I 0 W/m 11,9 C 13,9 C 8,0 km/h (2 Bft) 95,74 %
16.10.2016 20:04 13,9 C 88 % 1021,5 hPa 0,0 l/m 6,4 km/h (2 Bft) O-NO 71 0 min 0,000 mm 0,0 UV-I 0 W/m 11,9 C 13,9 C 8,0 km/h (2 Bft) 97,87 %
16.10.2016 20:06 13,9 C 88 % 1021,5 hPa 0,0 l/m 6,1 km/h (2 Bft) O 84 0 min 0,000 mm 0,0 UV-I 0 W/m 11,9 C 13,9 C 8,0 km/h (2 Bft) 97,87 %
16.10.2016 20:08 13,8 C 88 % 1021,5 hPa 0,0 l/m 5,1 km/h (1 Bft) O-NO 72 0 min 0,000 mm 0,0 UV-I 0 W/m 11,8 C 13,8 C 8,0 km/h (2 Bft) 95,83 %
16.10.2016 20:10 13,8 C 88 % 1021,5 hPa 0,0 l/m 6,5 km/h (2 Bft) O 82 0 min 0,000 mm 0,0 UV-I 0 W/m 11,8 C 13,8 C 11,3 km/h (2 Bft) 96,00 %
16.10.2016 20:12 13,7 C 88 % 1021,5 hPa 0,0 l/m 5,7 km/h (1 Bft) O-NO 63 0 min 0,000 mm 0,0 UV-I 0 W/m 11,7 C 13,7 C 8,0 km/h (2 Bft) 95,74 %
16.10.2016 20:14 13,7 C 89 % 1021,5 hPa 0,0 l/m 6,0 km/h (2 Bft) O-NO 75 0 min 0,000 mm 0,0 UV-I 0 W/m 11,9 C 13,7 C 11,3 km/h (2 Bft) 97,87 %
16.10.2016 20:16 13,7 C 89 % 1021,6 hPa 0,0 l/m 6,0 km/h (2 Bft) O-NO 69 0 min 0,000 mm 0,0 UV-I 0 W/m 11,9 C 13,7 C 11,3 km/h (2 Bft) 97,87 %
16.10.2016 20:18 13,6 C 89 % 1021,6 hPa 0,0 l/m 5,6 km/h (1 Bft) O 80 0 min 0,000 mm 0,0 UV-I 0 W/m 11,8 C 13,6 C 8,0 km/h (2 Bft) 100,00 %
16.10.2016 20:20 13,6 C 89 % 1021,6 hPa 0,0 l/m 4,8 km/h (1 Bft) O-NO 67 0 min 0,000 mm 0,0 UV-I 0 W/m 11,8 C 13,6 C 11,3 km/h (2 Bft) 97,37 %
16.10.2016 20:25 13,6 C 89 % 1021,7 hPa 0,0 l/m 4,8 km/h (1 Bft) O-NO 67 0 min 0,000 mm 0,0 UV-I 0 W/m 11,8 C 13,6 C 8,0 km/h (2 Bft) 94,74 %
16.10.2016 20:26 13,5 C 89 % 1021,7 hPa 0,0 l/m 3,2 km/h (1 Bft) O-NO 62 0 min 0,000 mm 0,0 UV-I 0 W/m 11,7 C 13,5 C 3,2 km/h (1 Bft) 99,46 %
16.10.2016 20:28 13,4 C 89 % 1021,7 hPa 0,0 l/m 3,4 km/h (1 Bft) O-NO 67 0 min 0,000 mm 0,0 UV-I 0 W/m 11,6 C 13,4 C 4,8 km/h (1 Bft) 98,11 %
16.10.2016 20:30 13,4 C 89 % 1021,7 hPa 0,0 l/m 3,8 km/h (1 Bft) O-NO 63 0 min 0,000 mm 0,0 UV-I 0 W/m 11,6 C 13,4 C 4,8 km/h (1 Bft) 97,14 %
16.10.2016 20:32 13,3 C 89 % 1021,7 hPa 0,0 l/m 3,1 km/h (1 Bft) O-NO 62 0 min 0,000 mm 0,0 UV-I 0 W/m 11,5 C 13,3 C 4,8 km/h (1 Bft) 95,74 %
16.10.2016 20:34 13,2 C 89 % 1021,7 hPa 0,0 l/m 4,4 km/h (1 Bft) O-NO 59 0 min 0,000 mm 0,0 UV-I 0 W/m 11,4 C 13,2 C 6,4 km/h (2 Bft) 97,92 %
16.10.2016 20:36 13,2 C 89 % 1021,7 hPa 0,0 l/m 3,6 km/h (1 Bft) O-NO 63 0 min 0,000 mm 0,0 UV-I 0 W/m 11,4 C 13,2 C 4,8 km/h (1 Bft) 97,87 %
16.10.2016 20:39 13,1 C 90 % 1021,7 hPa 0,0 l/m 3,9 km/h (1 Bft) NO 52 0 min 0,000 mm 0,0 UV-I 0 W/m 11,5 C 13,1 C 6,4 km/h (2 Bft) 98,80 %
16.10.2016 20:40 13,0 C 90 % 1021,7 hPa 0,0 l/m 4,4 km/h (1 Bft) NO 55 0 min 0,000 mm 0,0 UV-I 0 W/m 11,4 C 13,0 C 6,4 km/h (2 Bft) 90,91 %
16.10.2016 20:42 13,0 C 90 % 1021,7 hPa 0,0 l/m 4,8 km/h (1 Bft) NO 55 0 min 0,000 mm 0,0 UV-I 0 W/m 11,4 C 13,0 C 6,4 km/h (2 Bft) 95,74 %
16.10.2016 20:44 12,9 C 91 % 1021,7 hPa 0,0 l/m 4,6 km/h (1 Bft) NO 51 0 min 0,000 mm 0,0 UV-I 0 W/m 11,5 C 12,9 C 6,4 km/h (2 Bft) 97,87 %
16.10.2016 20:46 12,9 C 91 % 1021,7 hPa 0,0 l/m 3,5 km/h (1 Bft) NO 46 0 min 0,000 mm 0,0 UV-I 0 W/m 11,5 C 12,9 C 4,8 km/h (1 Bft) 100,00 %
16.10.2016 20:48 12,8 C 90 % 1021,7 hPa 0,0 l/m 3,8 km/h (1 Bft) NO 55 0 min 0,000 mm 0,0 UV-I 0 W/m 11,2 C 12,8 C 4,8 km/h (1 Bft) 100,00 %
16.10.2016 20:50 12,7 C 91 % 1021,7 hPa 0,0 l/m 4,3 km/h (1 Bft) NO 53 0 min 0,000 mm 0,0 UV-I 0 W/m 11,3 C 12,7 C 6,4 km/h (2 Bft) 100,00 %
16.10.2016 20:52 12,7 C 91 % 1021,7 hPa 0,0 l/m 3,8 km/h (1 Bft) NO 36 0 min 0,000 mm 0,0 UV-I 0 W/m 11,3 C 12,7 C 6,4 km/h (2 Bft) 95,74 %
16.10.2016 20:54 12,6 C 91 % 1021,7 hPa 0,0 l/m 4,0 km/h (1 Bft) NO 51 0 min 0,000 mm 0,0 UV-I 0 W/m 11,2 C 12,6 C 6,4 km/h (2 Bft) 100,00 %
16.10.2016 20:56 12,5 C 91 % 1021,8 hPa 0,0 l/m 5,1 km/h (1 Bft) O-NO 61 0 min 0,000 mm 0,0 UV-I 0 W/m 11,1 C 12,5 C 8,0 km/h (2 Bft) 100,00 %
16.10.2016 20:58 12,4 C 92 % 1021,8 hPa 0,0 l/m 4,2 km/h (1 Bft) O-NO 57 0 min 0,000 mm 0,0 UV-I 0 W/m 11,1 C 12,4 C 6,4 km/h (2 Bft) 97,87 %
16.10.2016 21:00 12,3 C 92 % 1021,8 hPa 0,0 l/m 4,4 km/h (1 Bft) NO 50 0 min 0,000 mm 0,0 UV-I 0 W/m 11,0 C 12,3 C 6,4 km/h (2 Bft) 97,87 %
16.10.2016 21:02 12,3 C 92 % 1021,8 hPa 0,0 l/m 3,0 km/h (1 Bft) O-NO 64 0 min 0,000 mm 0,0 UV-I 0 W/m 11,0 C 12,3 C 6,4 km/h (2 Bft) 97,87 %
16.10.2016 21:04 12,3 C 92 % 1021,8 hPa 0,0 l/m 4,9 km/h (1 Bft) NO 51 0 min 0,000 mm 0,0 UV-I 0 W/m 11,0 C 12,3 C 6,4 km/h (2 Bft) 100,00 %
16.10.2016 21:06 12,3 C 92 % 1021,8 hPa 0,0 l/m 4,6 km/h (1 Bft) O-NO 67 0 min 0,000 mm 0,0 UV-I 0 W/m 11,0 C 12,3 C 8,0 km/h (2 Bft) 97,87 %
16.10.2016 21:08 12,3 C 92 % 1021,8 hPa 0,0 l/m 7,4 km/h (2 Bft) O-NO 64 0 min 0,000 mm 0,0 UV-I 0 W/m 11,0 C 11,6 C 11,3 km/h (2 Bft) 100,00 %
16.10.2016 21:10 12,3 C 93 % 1021,8 hPa 0,0 l/m 8,0 km/h (2 Bft) NO 47 0 min 0,000 mm 0,0 UV-I 0 W/m 11,2 C 11,3 C 16,1 km/h (3 Bft) 100,00 %
16.10.2016 21:12 12,3 C 92 % 1021,8 hPa 0,0 l/m 8,1 km/h (2 Bft) NO 48 0 min 0,000 mm 0,0 UV-I 0 W/m 11,0 C 11,2 C 14,5 km/h (3 Bft) 100,00 %
16.10.2016 21:14 12,4 C 93 % 1021,8 hPa 0,0 l/m 7,8 km/h (2 Bft) NO 49 0 min 0,000 mm 0,0 UV-I 0 W/m 11,3 C 11,5 C 12,9 km/h (3 Bft) 100,00 %
16.10.2016 21:16 12,4 C 92 % 1021,8 hPa 0,0 l/m 8,7 km/h (2 Bft) O-NO 61 0 min 0,000 mm 0,0 UV-I 0 W/m 11,1 C 11,0 C 14,5 km/h (3 Bft) 100,00 %
16.10.2016 21:18 12,3 C 92 % 1021,7 hPa 0,0 l/m 7,8 km/h (2 Bft) O-NO 69 0 min 0,000 mm 0,0 UV-I 0 W/m 11,0 C 11,4 C 9,7 km/h (2 Bft) 100,00 %
16.10.2016 21:20 12,4 C 92 % 1021,8 hPa 0,0 l/m 8,8 km/h (2 Bft) NO 56 0 min 0,000 mm 0,0 UV-I 0 W/m 11,1 C 10,9 C 14,5 km/h (3 Bft) 97,87 %
16.10.2016 21:22 12,4 C 92 % 1021,8 hPa 0,0 l/m 11,4 km/h (2 Bft) O-NO 64 0 min 0,000 mm 0,0 UV-I 0 W/m 11,1 C 9,6 C 17,7 km/h (3 Bft) 100,00 %
16.10.2016 21:24 12,4 C 92 % 1021,8 hPa 0,0 l/m 11,3 km/h (2 Bft) NO 53 0 min 0,000 mm 0,0 UV-I 0 W/m 11,1 C 9,6 C 16,1 km/h (3 Bft) 100,00 %
16.10.2016 21:26 12,4 C 92 % 1021,8 hPa 0,0 l/m 11,0 km/h (2 Bft) NO 34 0 min 0,000 mm 0,0 UV-I 0 W/m 11,1 C 9,7 C 16,1 km/h (3 Bft) 100,00 %
16.10.2016 21:28 12,4 C 92 % 1021,8 hPa 0,0 l/m 12,2 km/h (2 Bft) NO 51 0 min 0,000 mm 0,0 UV-I 0 W/m 11,1 C 9,2 C 17,7 km/h (3 Bft) 100,00 %
16.10.2016 21:30 12,5 C 91 % 1021,8 hPa 0,0 l/m 14,0 km/h (3 Bft) O-NO 69 0 min 0,000 mm 0,0 UV-I 0 W/m 11,1 C 8,5 C 20,9 km/h (4 Bft) 100,00 %
16.10.2016 21:32 12,5 C 91 % 1021,9 hPa 0,0 l/m 12,7 km/h (3 Bft) NO 49 0 min 0,000 mm 0,0 UV-I 0 W/m 11,1 C 9,1 C 20,9 km/h (4 Bft) 100,00 %
16.10.2016 21:34 12,6 C 91 % 1021,9 hPa 0,0 l/m 10,3 km/h (2 Bft) NO 51 0 min 0,000 mm 0,0 UV-I 0 W/m 11,2 C 10,3 C 16,1 km/h (3 Bft) 100,00 %
16.10.2016 21:36 12,6 C 91 % 1021,9 hPa 0,0 l/m 12,0 km/h (2 Bft) O-NO 61 0 min 0,000 mm 0,0 UV-I 0 W/m 11,2 C 9,5 C 17,7 km/h (3 Bft) 97,87 %
16.10.2016 21:38 12,6 C 90 % 1022,0 hPa 0,0 l/m 9,8 km/h (2 Bft) NO 40 0 min 0,000 mm 0,0 UV-I 0 W/m 11,0 C 10,6 C 14,5 km/h (3 Bft) 95,74 %
16.10.2016 21:40 12,6 C 90 % 1022,0 hPa 0,0 l/m 10,9 km/h (2 Bft) O-NO 61 0 min 0,000 mm 0,0 UV-I 0 W/m 11,0 C 10,0 C 17,7 km/h (3 Bft) 100,00 %
16.10.2016 21:42 12,6 C 90 % 1022,1 hPa 0,0 l/m 8,9 km/h (2 Bft) O-NO 72 0 min 0,000 mm 0,0 UV-I 0 W/m 11,0 C 11,1 C 16,1 km/h (3 Bft) 100,00 %
16.10.2016 21:44 12,6 C 90 % 1022,0 hPa 0,0 l/m 12,4 km/h (3 Bft) NO 42 0 min 0,000 mm 0,0 UV-I 0 W/m 11,0 C 9,3 C 17,7 km/h (3 Bft) 98,00 %
16.10.2016 21:46 12,6 C 90 % 1022,1 hPa 0,0 l/m 10,7 km/h (2 Bft) O-NO 69 0 min 0,000 mm 0,0 UV-I 0 W/m 11,0 C 10,1 C 16,1 km/h (3 Bft) 97,87 %
16.10.2016 21:48 12,6 C 90 % 1022,1 hPa 0,0 l/m 10,9 km/h (2 Bft) NO 54 0 min 0,000 mm 0,0 UV-I 0 W/m 11,0 C 10,0 C 16,1 km/h (3 Bft) 95,74 %
16.10.2016 21:50 12,6 C 90 % 1022,1 hPa 0,0 l/m 11,3 km/h (2 Bft) O-NO 57 0 min 0,000 mm 0,0 UV-I 0 W/m 11,0 C 9,8 C 17,7 km/h (3 Bft) 97,87 %
16.10.2016 21:52 12,6 C 90 % 1022,2 hPa 0,0 l/m 10,9 km/h (2 Bft) O-NO 62 0 min 0,000 mm 0,0 UV-I 0 W/m 11,0 C 10,0 C 16,1 km/h (3 Bft) 94,00 %
16.10.2016 21:54 12,5 C 90 % 1022,1 hPa 0,0 l/m 10,0 km/h (2 Bft) NO 56 0 min 0,000 mm 0,0 UV-I 0 W/m 10,9 C 10,4 C 16,1 km/h (3 Bft) 97,87 %
16.10.2016 21:56 12,5 C 90 % 1022,1 hPa 0,0 l/m 8,8 km/h (2 Bft) O 86 0 min 0,000 mm 0,0 UV-I 0 W/m 10,9 C 11,0 C 12,9 km/h (3 Bft) 93,62 %
16.10.2016 21:58 12,4 C 90 % 1022,2 hPa 0,0 l/m 9,8 km/h (2 Bft) O-NO 61 0 min 0,000 mm 0,0 UV-I 0 W/m 10,8 C 10,4 C 14,5 km/h (3 Bft) 94,29 %
16.10.2016 22:00 12,4 C 90 % 1022,2 hPa 0,0 l/m 10,6 km/h (2 Bft) NO 45 0 min 0,000 mm 0,0 UV-I 0 W/m 10,8 C 9,9 C 16,1 km/h (3 Bft) 97,87 %
16.10.2016 22:02 12,4 C 90 % 1022,2 hPa 0,0 l/m 9,2 km/h (2 Bft) NO 55 0 min 0,000 mm 0,0 UV-I 0 W/m 10,8 C 10,7 C 14,5 km/h (3 Bft) 97,92 %
16.10.2016 22:04 12,3 C 90 % 1022,2 hPa 0,0 l/m 9,7 km/h (2 Bft) O-NO 63 0 min 0,000 mm 0,0 UV-I 0 W/m 10,7 C 10,3 C 16,1 km/h (3 Bft) 93,62 %
16.10.2016 22:06 12,3 C 90 % 1022,2 hPa 0,0 l/m 8,6 km/h (2 Bft) NO 46 0 min 0,000 mm 0,0 UV-I 0 W/m 10,7 C 10,9 C 12,9 km/h (3 Bft) 97,92 %
16.10.2016 22:08 12,3 C 90 % 1022,3 hPa 0,0 l/m 9,2 km/h (2 Bft) O-NO 63 0 min 0,000 mm 0,0 UV-I 0 W/m 10,7 C 10,6 C 14,5 km/h (3 Bft) 97,87 %
16.10.2016 22:10 12,3 C 90 % 1022,3 hPa 0,0 l/m 8,8 km/h (2 Bft) NO 53 0 min 0,000 mm 0,0 UV-I 0 W/m 10,7 C 10,8 C 12,9 km/h (3 Bft) 98,00 %
16.10.2016 22:12 12,2 C 90 % 1022,3 hPa 0,0 l/m 10,6 km/h (2 Bft) NO 53 0 min 0,000 mm 0,0 UV-I 0 W/m 10,6 C 9,7 C 16,1 km/h (3 Bft) 94,00 %
16.10.2016 22:14 12,2 C 90 % 1022,3 hPa 0,0 l/m 9,4 km/h (2 Bft) O-NO 71 0 min 0,000 mm 0,0 UV-I 0 W/m 10,6 C 10,3 C 14,5 km/h (3 Bft) 97,87 %
16.10.2016 22:16 12,2 C 90 % 1022,3 hPa 0,0 l/m 9,9 km/h (2 Bft) O-NO 71 0 min 0,000 mm 0,0 UV-I 0 W/m 10,6 C 10,1 C 14,5 km/h (3 Bft) 95,74 %
16.10.2016 22:18 12,2 C 90 % 1022,3 hPa 0,0 l/m 8,9 km/h (2 Bft) O-NO 66 0 min 0,000 mm 0,0 UV-I 0 W/m 10,6 C 10,6 C 16,1 km/h (3 Bft) 97,87 %
16.10.2016 22:20 12,2 C 90 % 1022,3 hPa 0,0 l/m 8,9 km/h (2 Bft) NO 39 0 min 0,000 mm 0,0 UV-I 0 W/m 10,6 C 10,6 C 16,1 km/h (3 Bft) 100,00 %
16.10.2016 22:22 12,1 C 90 % 1022,4 hPa 0,0 l/m 7,2 km/h (2 Bft) O-NO 76 0 min 0,000 mm 0,0 UV-I 0 W/m 10,5 C 11,6 C 14,5 km/h (3 Bft) 100,00 %
16.10.2016 22:24 12,1 C 90 % 1022,4 hPa 0,0 l/m 8,3 km/h (2 Bft) O-NO 57 0 min 0,000 mm 0,0 UV-I 0 W/m 10,5 C 10,9 C 12,9 km/h (3 Bft) 100,00 %
16.10.2016 22:26 12,0 C 90 % 1022,4 hPa 0,0 l/m 7,1 km/h (2 Bft) NO 53 0 min 0,000 mm 0,0 UV-I 0 W/m 10,4 C 11,5 C 12,9 km/h (3 Bft) 100,00 %
16.10.2016 22:28 11,9 C 90 % 1022,4 hPa 0,0 l/m 5,2 km/h (1 Bft) NO 42 0 min 0,000 mm 0,0 UV-I 0 W/m 10,3 C 11,9 C 8,0 km/h (2 Bft) 100,00 %
16.10.2016 22:30 11,9 C 90 % 1022,4 hPa 0,0 l/m 5,6 km/h (1 Bft) O-NO 70 0 min 0,000 mm 0,0 UV-I 0 W/m 10,3 C 11,9 C 8,0 km/h (2 Bft) 97,87 %
16.10.2016 22:32 11,8 C 91 % 1022,4 hPa 0,0 l/m 6,0 km/h (2 Bft) NO 55 0 min 0,000 mm 0,0 UV-I 0 W/m 10,4 C 11,8 C 8,0 km/h (2 Bft) 100,00 %
16.10.2016 22:34 11,8 C 91 % 1022,5 hPa 0,0 l/m 5,8 km/h (2 Bft) O-NO 64 0 min 0,000 mm 0,0 UV-I 0 W/m 10,4 C 11,8 C 8,0 km/h (2 Bft) 97,87 %
16.10.2016 22:36 11,7 C 91 % 1022,5 hPa 0,0 l/m 5,0 km/h (1 Bft) O-NO 67 0 min 0,000 mm 0,0 UV-I 0 W/m 10,3 C 11,7 C 8,0 km/h (2 Bft) 100,00 %
16.10.2016 22:38 11,7 C 91 % 1022,4 hPa 0,0 l/m 7,7 km/h (2 Bft) O-NO 57 0 min 0,000 mm 0,0 UV-I 0 W/m 10,3 C 10,8 C 12,9 km/h (3 Bft) 100,00 %
16.10.2016 22:40 11,7 C 91 % 1022,4 hPa 0,0 l/m 7,2 km/h (2 Bft) NO 41 0 min 0,000 mm 0,0 UV-I 0 W/m 10,3 C 11,2 C 9,7 km/h (2 Bft) 98,00 %
16.10.2016 22:42 11,7 C 91 % 1022,5 hPa 0,0 l/m 6,9 km/h (2 Bft) O-NO 65 0 min 0,000 mm 0,0 UV-I 0 W/m 10,3 C 11,4 C 9,7 km/h (2 Bft) 97,87 %
16.10.2016 22:44 11,7 C 91 % 1022,5 hPa 0,0 l/m 7,0 km/h (2 Bft) NO 53 0 min 0,000 mm 0,0 UV-I 0 W/m 10,3 C 11,3 C 9,7 km/h (2 Bft) 100,00 %
16.10.2016 22:46 11,6 C 91 % 1022,5 hPa 0,0 l/m 5,8 km/h (2 Bft) O-NO 63 0 min 0,000 mm 0,0 UV-I 0 W/m 10,2 C 11,6 C 11,3 km/h (2 Bft) 95,74 %
16.10.2016 22:48 11,6 C 91 % 1022,5 hPa 0,0 l/m 7,3 km/h (2 Bft) NO 55 0 min 0,000 mm 0,0 UV-I 0 W/m 10,2 C 11,0 C 14,5 km/h (3 Bft) 100,00 %
16.10.2016 22:50 11,6 C 91 % 1022,5 hPa 0,0 l/m 7,0 km/h (2 Bft) O-NO 62 0 min 0,000 mm 0,0 UV-I 0 W/m 10,2 C 11,2 C 11,3 km/h (2 Bft) 100,00 %
16.10.2016 22:52 11,5 C 91 % 1022,6 hPa 0,0 l/m 6,3 km/h (2 Bft) NO 50 0 min 0,000 mm 0,0 UV-I 0 W/m 10,1 C 11,5 C 11,3 km/h (2 Bft) 97,87 %
16.10.2016 22:54 11,5 C 91 % 1022,5 hPa 0,0 l/m 6,6 km/h (2 Bft) NO 44 0 min 0,000 mm 0,0 UV-I 0 W/m 10,1 C 11,4 C 9,7 km/h (2 Bft) 100,00 %
16.10.2016 22:56 11,4 C 91 % 1022,5 hPa 0,0 l/m 6,2 km/h (2 Bft) NO 42 0 min 0,000 mm 0,0 UV-I 0 W/m 10,0 C 11,4 C 11,3 km/h (2 Bft) 100,00 %
16.10.2016 22:58 11,4 C 91 % 1022,5 hPa 0,0 l/m 6,5 km/h (2 Bft) NO 47 0 min 0,000 mm 0,0 UV-I 0 W/m 10,0 C 11,4 C 9,7 km/h (2 Bft) 100,00 %
16.10.2016 23:00 11,4 C 91 % 1022,5 hPa 0,0 l/m 8,1 km/h (2 Bft) NO 49 0 min 0,000 mm 0,0 UV-I 0 W/m 10,0 C 10,3 C 12,9 km/h (3 Bft) 100,00 %
16.10.2016 23:03 11,4 C 91 % 1022,5 hPa 0,0 l/m 7,3 km/h (2 Bft) N-NO 29 0 min 0,000 mm 0,0 UV-I 0 W/m 10,0 C 10,8 C 11,3 km/h (2 Bft) 98,63 %
16.10.2016 23:04 11,4 C 91 % 1022,5 hPa 0,0 l/m 7,0 km/h (2 Bft) NO 46 0 min 0,000 mm 0,0 UV-I 0 W/m 10,0 C 11,0 C 9,7 km/h (2 Bft) 100,00 %
16.10.2016 23:06 11,4 C 91 % 1022,5 hPa 0,0 l/m 6,6 km/h (2 Bft) NO 46 0 min 0,000 mm 0,0 UV-I 0 W/m 10,0 C 11,3 C 9,7 km/h (2 Bft) 95,74 %
16.10.2016 23:08 11,4 C 91 % 1022,5 hPa 0,0 l/m 6,2 km/h (2 Bft) O-NO 74 0 min 0,000 mm 0,0 UV-I 0 W/m 10,0 C 11,4 C 9,7 km/h (2 Bft) 100,00 %
16.10.2016 23:10 11,3 C 91 % 1022,4 hPa 0,0 l/m 6,8 km/h (2 Bft) O-NO 59 0 min 0,000 mm 0,0 UV-I 0 W/m 9,9 C 11,0 C 12,9 km/h (3 Bft) 100,00 %
16.10.2016 23:12 11,3 C 91 % 1022,4 hPa 0,0 l/m 5,1 km/h (1 Bft) NO 45 0 min 0,000 mm 0,0 UV-I 0 W/m 9,9 C 11,3 C 6,4 km/h (2 Bft) 100,00 %
16.10.2016 23:14 11,3 C 91 % 1022,4 hPa 0,0 l/m 5,5 km/h (1 Bft) O-NO 57 0 min 0,000 mm 0,0 UV-I 0 W/m 9,9 C 11,3 C 8,0 km/h (2 Bft) 100,00 %
16.10.2016 23:16 11,3 C 91 % 1022,5 hPa 0,0 l/m 6,2 km/h (2 Bft) O-NO 62 0 min 0,000 mm 0,0 UV-I 0 W/m 9,9 C 11,3 C 9,7 km/h (2 Bft) 100,00 %
16.10.2016 23:18 11,2 C 91 % 1022,5 hPa 0,0 l/m 7,2 km/h (2 Bft) O-NO 58 0 min 0,000 mm 0,0 UV-I 0 W/m 9,8 C 10,6 C 11,3 km/h (2 Bft) 100,00 %
16.10.2016 23:20 11,2 C 91 % 1022,5 hPa 0,0 l/m 5,0 km/h (1 Bft) O-NO 63 0 min 0,000 mm 0,0 UV-I 0 W/m 9,8 C 11,2 C 8,0 km/h (2 Bft) 100,00 %
16.10.2016 23:22 11,2 C 91 % 1022,5 hPa 0,0 l/m 7,3 km/h (2 Bft) O-NO 59 0 min 0,000 mm 0,0 UV-I 0 W/m 9,8 C 10,6 C 9,7 km/h (2 Bft) 98,00 %
16.10.2016 23:24 11,2 C 91 % 1022,6 hPa 0,0 l/m 6,7 km/h (2 Bft) NO 53 0 min 0,000 mm 0,0 UV-I 0 W/m 9,8 C 11,0 C 9,7 km/h (2 Bft) 98,00 %
16.10.2016 23:26 11,1 C 91 % 1022,5 hPa 0,0 l/m 8,2 km/h (2 Bft) NO 53 0 min 0,000 mm 0,0 UV-I 0 W/m 9,7 C 9,9 C 12,9 km/h (3 Bft) 100,00 %
16.10.2016 23:28 11,1 C 91 % 1022,5 hPa 0,0 l/m 7,7 km/h (2 Bft) O-NO 57 0 min 0,000 mm 0,0 UV-I 0 W/m 9,7 C 10,2 C 9,7 km/h (2 Bft) 97,87 %
16.10.2016 23:30 11,0 C 91 % 1022,6 hPa 0,0 l/m 8,3 km/h (2 Bft) NO 43 0 min 0,000 mm 0,0 UV-I 0 W/m 9,6 C 9,7 C 12,9 km/h (3 Bft) 100,00 %
16.10.2016 23:32 11,0 C 91 % 1022,6 hPa 0,0 l/m 8,0 km/h (2 Bft) O-NO 63 0 min 0,000 mm 0,0 UV-I 0 W/m 9,6 C 9,9 C 12,9 km/h (3 Bft) 100,00 %
16.10.2016 23:34 11,0 C 91 % 1022,5 hPa 0,0 l/m 7,6 km/h (2 Bft) NO 53 0 min 0,000 mm 0,0 UV-I 0 W/m 9,6 C 10,2 C 11,3 km/h (2 Bft) 100,00 %
16.10.2016 23:36 10,9 C 91 % 1022,5 hPa 0,0 l/m 8,4 km/h (2 Bft) O-NO 61 0 min 0,000 mm 0,0 UV-I 0 W/m 9,5 C 9,5 C 12,9 km/h (3 Bft) 100,00 %
16.10.2016 23:38 10,9 C 91 % 1022,5 hPa 0,0 l/m 7,5 km/h (2 Bft) NO 56 0 min 0,000 mm 0,0 UV-I 0 W/m 9,5 C 10,1 C 9,7 km/h (2 Bft) 97,73 %
16.10.2016 23:40 10,9 C 91 % 1022,5 hPa 0,0 l/m 9,2 km/h (2 Bft) NO 41 0 min 0,000 mm 0,0 UV-I 0 W/m 9,5 C 9,0 C 14,5 km/h (3 Bft) 97,87 %
16.10.2016 23:42 11,0 C 91 % 1022,5 hPa 0,0 l/m 9,4 km/h (2 Bft) O-NO 59 0 min 0,000 mm 0,0 UV-I 0 W/m 9,6 C 9,0 C 16,1 km/h (3 Bft) 97,87 %
16.10.2016 23:44 11,0 C 91 % 1022,6 hPa 0,0 l/m 7,8 km/h (2 Bft) NO 46 0 min 0,000 mm 0,0 UV-I 0 W/m 9,6 C 10,0 C 14,5 km/h (3 Bft) 100,00 %
16.10.2016 23:46 11,0 C 91 % 1022,6 hPa 0,0 l/m 8,1 km/h (2 Bft) O-NO 74 0 min 0,000 mm 0,0 UV-I 0 W/m 9,6 C 9,8 C 12,9 km/h (3 Bft) 97,87 %
16.10.2016 23:48 11,1 C 91 % 1022,6 hPa 0,0 l/m 7,1 km/h (2 Bft) NO 49 0 min 0,000 mm 0,0 UV-I 0 W/m 9,7 C 10,6 C 11,3 km/h (2 Bft) 97,87 %
16.10.2016 23:50 11,0 C 91 % 1022,6 hPa 0,0 l/m 8,0 km/h (2 Bft) O-NO 60 0 min 0,000 mm 0,0 UV-I 0 W/m 9,6 C 9,9 C 12,9 km/h (3 Bft) 97,87 %
16.10.2016 23:52 11,0 C 91 % 1022,6 hPa 0,0 l/m 8,5 km/h (2 Bft) O-NO 59 0 min 0,000 mm 0,0 UV-I 0 W/m 9,6 C 9,6 C 12,9 km/h (3 Bft) 97,87 %
16.10.2016 23:54 11,1 C 91 % 1022,6 hPa 0,0 l/m 9,4 km/h (2 Bft) O-NO 58 0 min 0,000 mm 0,0 UV-I 0 W/m 9,7 C 9,1 C 16,1 km/h (3 Bft) 97,87 %
16.10.2016 23:56 11,1 C 91 % 1022,5 hPa 0,0 l/m 9,0 km/h (2 Bft) O-NO 61 0 min 0,000 mm 0,0 UV-I 0 W/m 9,7 C 9,4 C 14,5 km/h (3 Bft) 93,62 %
16.10.2016 23:58 11,1 C 91 % 1022,5 hPa 0,0 l/m 9,7 km/h (2 Bft) NO 46 0 min 0,000 mm 0,0 UV-I 0 W/m 9,7 C 9,0 C 14,5 km/h (3 Bft) 97,87 %
_ Min-Zeit 07:04 15:26 00:00 - 00:38 - - - - - - 07:02 21:30 00:38 20:40
Minimum _ 8,9 C 66 % 1017,9 hPa - 0,0 km/h (0 Bft) - - - - - - 8,5 C 8,5 C 0,0 km/h (0 Bft) 90,91 %
_ Max-Zeit 15:24 07:24 22:52 00:00 21:30 - - 09:20 13:02 12:40 13:14 13:16 15:04 21:30 00:24
Maximum _ 18,4 C 98 % 1022,6 hPa 0,0 l/m 14,0 km/h
O-NO (3 Bft)
- - 2 min 0,280 mm 2,0 UV-I 570 W/m 14,4 C 18,3 C 20,9 km/h
O-NO (4 Bft)
100,00 %
Durchschnitt _ 13,2 C 88 % 1020,7 hPa #0,0 l/m 3,4 km/h (1 Bft) O-NO - #8:06 h #1,702 mm 1,3 UV-I 294 W/m 11,2 C 13,0 C 5,8 km/h (2 Bft) 98,45 %